WA4BPS Weather Reports


time (UTC)temp
F
wind
direction
speed
knots
gust
knots
rain 1hr
in
rain 24hr
in
rain mn
in
humidity
%
barometer
mb
20260901203834 86 24 1.7 4.3 0.00 0.00 0.00 50 1016.1
20260901203732 86 32 1.7 4.3 0.00 0.00 0.00 50 1016.1
20260901203631 86 37 2.6 4.3 0.00 0.00 0.00 51 1016.1
20260901203530 86 38 2.6 4.3 0.00 0.00 0.00 51 1016.1
20260901203428 86 40 0.9 4.3 0.00 0.00 0.00 54 1016.1
20260901203326 86 41 0.0 4.3 0.00 0.00 0.00 53 1016.1
20260901203246 86 44 0.0 4.3 0.00 0.00 0.00 53 1016.1
20260901203155 86 44 0.9 4.3 0.00 0.00 0.00 53 1016.1
20260901203056 86 42 2.6 4.3 0.00 0.00 0.00 52 1016.1
20260901202933 86 42 2.6 4.3 0.00 0.00 0.00 55 1016.1
20260901202835 86 11 1.7 2.6 0.00 0.00 0.00 54 1016.1
20260901202753 86 10 0.9 2.6 0.00 0.00 0.00 51 1016.2
20260901202650 86 10 0.9 2.6 0.00 0.00 0.00 53 1016.2
20260901202548 86 11 0.9 2.6 0.00 0.00 0.00 53 1016.2
20260901202425 86 8 0.0 2.6 0.00 0.00 0.00 53 1016.2
20260901202344 86 11 0.9 2.6 0.00 0.00 0.00 52 1016.2
20260901202301 86 10 0.9 2.6 0.00 0.00 0.00 51 1016.2
20260901202200 86 10 0.9 2.6 0.00 0.00 0.00 51 1016.2
20260901202102 86 11 1.7 2.6 0.00 0.00 0.00 51 1016.2
20260901202021 86 11 1.7 2.6 0.00 0.00 0.00 52 1016.2
20260901201918 86 11 1.7 2.6 0.00 0.00 0.00 53 1016.2
20260901201815 86 11 1.7 2.6 0.00 0.00 0.00 52 1016.2
20260901201704 86 10 1.7 2.6 0.00 0.00 0.00 52 1016.2
20260901201541 86 10 0.9 1.7 0.00 0.00 0.00 52 1016.2
20260901201441 86 11 0.9 1.7 0.00 0.00 0.00 52 1016.2
20260901201342 86 10 0.9 1.7 0.00 0.00 0.00 52 1016.2
20260901201239 86 11 1.7 1.7 0.00 0.00 0.00 52 1016.3
20260901201141 86 11 1.7 1.7 0.00 0.00 0.00 52 1016.3
20260901201041 86 11 0.9 1.7 0.00 0.00 0.00 52 1016.3
20260901201000 86 11 0.0 4.3 0.00 0.00 0.00 51 1016.3
20260901200837 86 11 0.0 4.3 0.00 0.00 0.00 52 1016.3
20260901200735 86 10 0.9 4.3 0.00 0.00 0.00 52 1016.3
20260901200633 86 10 0.9 4.3 0.00 0.00 0.00 54 1016.3
20260901200532 86 10 0.0 4.3 0.00 0.00 0.00 54 1016.3
20260901200434 86 11 0.0 4.3 0.00 0.00 0.00 54 1016.3
20260901200332 86 8 0.0 4.3 0.00 0.00 0.00 54 1016.3
20260901200231 86 10 1.7 4.3 0.00 0.00 0.00 54 1016.3
20260901200201 86 11 1.7 4.3 0.00 0.00 0.00 56 1016.3
20260901200038 86 13 2.6 4.3 0.00 0.00 0.00 53 1016.3
20260901195957 86 3 0.9 2.6 0.00 0.00 0.00 53 1016.3
20260901195835 86 1 0.9 2.6 0.00 0.00 0.00 53 1016.3
20260901195734 86 1 0.9 2.6 0.00 0.00 0.00 53 1016.3
20260901195636 86 1 1.7 2.6 0.00 0.00 0.00 52 1016.3
20260901195554 86 360 1.7 2.6 0.00 0.00 0.00 53 1016.3
20260901195432 86 1 1.7 2.6 0.00 0.00 0.00 51 1016.3
20260901195331 86 360 0.9 1.7 0.00 0.00 0.00 52 1016.3
20260901195229 86 360 0.9 1.7 0.00 0.00 0.00 54 1016.3
20260901195127 86 360 0.0 2.6 0.00 0.00 0.00 54 1016.3
20260901195026 86 360 0.0 2.6 0.00 0.00 0.00 57 1016.3
20260901194928 87 360 0.0 2.6 0.00 0.00 0.00 57 1016.3
20260901194826 87 360 0.0 2.6 0.00 0.00 0.00 56 1016.3
20260901194736 87 360 0.9 2.6 0.00 0.00 0.00 56 1016.3
20260901194645 87 1 0.9 2.6 0.00 0.00 0.00 56 1016.3
20260901194543 87 360 0.9 2.6 0.00 0.00 0.00 56 1016.3
20260901194442 87 360 0.9 2.6 0.00 0.00 0.00 55 1016.3
20260901194400 87 360 1.7 2.6 0.00 0.00 0.00 54 1016.3
20260901194237 87 360 1.7 2.6 0.00 0.00 0.00 55 1016.5
20260901194140 87 360 0.0 2.6 0.00 0.00 0.00 55 1016.5
20260901194058 87 360 0.0 2.6 0.00 0.00 0.00 55 1016.5
20260901193935 87 360 0.0 2.6 0.00 0.00 0.00 52 1016.5
20260901193853 87 360 0.0 2.6 0.00 0.00 0.00 53 1016.5
20260901193751 87 360 0.9 2.6 0.00 0.00 0.00 52 1016.5
20260901193628 87 360 0.9 4.3 0.00 0.00 0.00 52 1016.5
20260901193547 87 360 1.7 4.3 0.00 0.00 0.00 53 1016.5
20260901193425 87 360 1.7 4.3 0.00 0.00 0.00 54 1016.5
20260901193343 87 360 1.7 4.3 0.00 0.00 0.00 54 1016.5
20260901193238 87 1 0.9 4.3 0.00 0.00 0.00 53 1016.5
20260901193149 87 360 0.9 4.3 0.00 0.00 0.00 52 1016.5
20260901193027 87 1 1.7 4.3 0.00 0.00 0.00 50 1016.5
20260901192926 87 360 2.6 4.3 0.00 0.00 0.00 50 1016.5
20260901192825 87 360 2.6 4.3 0.00 0.00 0.00 50 1016.5
20260901192743 87 1 3.5 4.3 0.00 0.00 0.00 51 1016.6
20260901192642 87 360 3.5 4.3 0.00 0.00 0.00 50 1016.6
20260901192600 87 1 1.7 4.3 0.00 0.00 0.00 50 1016.6
20260901192457 87 1 1.7 4.3 0.00 0.00 0.00 49 1016.6
20260901192338 87 360 1.7 4.3 0.00 0.00 0.00 49 1016.6
20260901192237 87 1 2.6 4.3 0.00 0.00 0.00 49 1016.6
20260901192134 87 360 1.7 4.3 0.00 0.00 0.00 50 1016.6
20260901192052 87 1 0.9 2.6 0.00 0.00 0.00 50 1016.6
20260901191929 87 1 1.7 2.6 0.00 0.00 0.00 50 1016.6
20260901191829 87 360 1.7 3.5 0.00 0.00 0.00 52 1016.6
20260901191728 87 1 0.9 4.3 0.00 0.00 0.00 51 1016.6
20260901191702 87 3 0.9 4.3 0.00 0.00 0.00 50 1016.6
20260901191540 87 3 1.7 4.3 0.00 0.00 0.00 50 1016.6
20260901191458 87 1 2.6 4.3 0.00 0.00 0.00 52 1016.6
20260901191335 87 1 0.9 4.3 0.00 0.00 0.00 52 1016.6
20260901191234 87 6 0.9 4.3 0.00 0.00 0.00 52 1016.8
20260901191132 87 1 0.9 4.3 0.00 0.00 0.00 51 1016.8
20260901191030 87 1 1.7 4.3 0.00 0.00 0.00 51 1016.8
20260901190932 87 1 3.5 4.3 0.00 0.00 0.00 50 1016.8
20260901190828 87 325 0.9 3.5 0.00 0.00 0.00 50 1016.8
20260901190727 87 326 1.7 3.5 0.00 0.00 0.00 50 1016.8
20260901190624 87 325 0.9 4.3 0.00 0.00 0.00 50 1016.8
20260901190542 87 326 1.7 4.3 0.00 0.00 0.00 50 1016.8
20260901190441 87 328 1.7 4.3 0.00 0.00 0.00 51 1016.8
20260901190338 87 326 2.6 4.3 0.00 0.00 0.00 50 1016.8
20260901190237 87 360 2.6 4.3 0.00 0.00 0.00 49 1016.8
20260901190207 87 360 2.6 4.3 0.00 0.00 0.00 49 1016.8
20260901190027 87 360 2.6 4.3 0.00 0.00 0.00 51 1016.8
20260901185926 87 1 2.6 4.3 0.00 0.00 0.00 50 1016.8
20260901185824 87 1 1.7 4.3 0.00 0.00 0.00 51 1016.8
20260901185743 87 4 1.7 2.6 0.00 0.00 0.00 50 1016.9
20260901185643 87 4 1.7 2.6 0.00 0.00 0.00 50 1016.9
20260901185522 87 6 0.0 1.7 0.00 0.00 0.00 50 1016.9
20260901185426 87 6 0.0 1.7 0.00 0.00 0.00 49 1016.9
20260901185324 86 4 0.0 1.7 0.00 0.00 0.00 48 1016.9
20260901185243 86 6 0.0 2.6 0.00 0.00 0.00 47 1016.9
20260901185142 86 6 0.9 2.6 0.00 0.00 0.00 47 1016.9
20260901185040 86 6 0.9 2.6 0.00 0.00 0.00 48 1016.9
20260901184938 86 6 0.0 2.6 0.00 0.00 0.00 48 1016.9
20260901184858 86 6 0.0 2.6 0.00 0.00 0.00 48 1016.9
20260901184815 86 6 0.0 2.6 0.00 0.00 0.00 50 1016.9
20260901184725 86 4 0.0 2.6 0.00 0.00 0.00 50 1016.9
20260901184544 86 6 0.0 2.6 0.00 0.00 0.00 50 1016.9
20260901184502 86 6 0.9 2.6 0.00 0.00 0.00 52 1016.9
20260901184338 86 6 0.9 2.6 0.00 0.00 0.00 50 1016.9
20260901184257 86 7 1.7 2.6 0.00 0.00 0.00 51 1017.2
20260901184133 86 3 1.7 2.6 0.00 0.00 0.00 52 1017.2
20260901184033 86 1 0.0 2.6 0.00 0.00 0.00 52 1017.2
20260901183935 86 360 0.9 3.5 0.00 0.00 0.00 52 1017.2
20260901183832 86 360 1.7 3.5 0.00 0.00 0.00 51 1017.2
20260901183734 86 360 0.9 3.5 0.00 0.00 0.00 50 1017.2
20260901183653 86 360 0.9 3.5 0.00 0.00 0.00 51 1017.2
20260901183531 86 360 1.7 3.5 0.00 0.00 0.00 52 1017.2
20260901183429 86 1 0.0 3.5 0.00 0.00 0.00 51 1017.2
20260901183328 86 360 0.9 3.5 0.00 0.00 0.00 52 1017.2
20260901183237 86 360 2.6 3.5 0.00 0.00 0.00 52 1017.2
20260901183146 86 360 1.7 3.5 0.00 0.00 0.00 51 1017.2
20260901183028 86 360 1.7 3.5 0.00 0.00 0.00 52 1017.2
20260901182929 86 360 0.9 2.6 0.00 0.00 0.00 51 1017.2
20260901182828 86 360 0.9 2.6 0.00 0.00 0.00 50 1017.2
20260901182746 86 360 0.9 2.6 0.00 0.00 0.00 52 1017.3
20260901182644 86 1 1.7 2.6 0.00 0.00 0.00 52 1017.3
20260901182540 86 360 0.9 2.6 0.00 0.00 0.00 53 1017.3
20260901182458 86 360 0.9 2.6 0.00 0.00 0.00 53 1017.3
20260901182336 86 3 1.7 2.6 0.00 0.00 0.00 56 1017.3
20260901182238 86 360 1.7 2.6 0.00 0.00 0.00 57 1017.3
20260901182141 86 360 1.7 2.6 0.00 0.00 0.00 57 1017.3
20260901182039 86 3 0.9 2.6 0.00 0.00 0.00 57 1017.3
20260901181938 86 360 0.0 2.6 0.00 0.00 0.00 57 1017.3
20260901181836 86 1 0.0 2.6 0.00 0.00 0.00 56 1017.3
20260901181755 86 3 0.9 2.6 0.00 0.00 0.00 57 1017.3
20260901181724 86 360 1.7 2.6 0.00 0.00 0.00 58 1017.3
20260901181525 86 360 1.7 2.6 0.00 0.00 0.00 56 1017.3
20260901181443 86 1 1.7 2.6 0.00 0.00 0.00 56 1017.3
20260901181341 86 360 0.9 2.6 0.00 0.00 0.00 54 1017.3
20260901181240 86 360 0.0 2.6 0.00 0.00 0.00 54 1017.3
20260901181138 86 1 0.9 2.6 0.00 0.00 0.00 54 1017.3
20260901181036 86 1 0.9 2.6 0.00 0.00 0.00 55 1017.3
20260901180934 86 360 1.7 2.6 0.00 0.00 0.00 58 1017.3
20260901180836 86 1 0.0 1.7 0.00 0.00 0.00 58 1017.3
20260901180733 86 360 0.9 1.7 0.00 0.00 0.00 57 1017.3
20260901180652 86 360 0.9 2.6 0.00 0.00 0.00 58 1017.3
20260901180529 86 360 0.0 2.6 0.00 0.00 0.00 57 1017.3
20260901180429 86 360 0.0 2.6 0.00 0.00 0.00 57 1017.3
20260901180328 86 1 0.0 2.6 0.00 0.00 0.00 57 1017.3
20260901180241 86 360 0.0 2.6 0.00 0.00 0.00 57 1017.3
20260901180151 86 360 0.9 2.6 0.00 0.00 0.00 57 1017.3
20260901180051 86 360 0.9 2.6 0.00 0.00 0.00 56 1017.3
20260901175928 86 360 0.0 2.6 0.00 0.00 0.00 56 1017.3
20260901175827 86 360 1.7 2.6 0.00 0.00 0.00 57 1017.3
20260901175726 86 360 0.9 2.6 0.00 0.00 0.00 57 1017.4
20260901175627 86 360 0.9 2.6 0.00 0.00 0.00 55 1017.4
20260901175526 86 360 0.9 2.6 0.00 0.00 0.00 55 1017.4
20260901175425 87 360 0.9 3.5 0.00 0.00 0.00 55 1017.4
20260901175347 87 360 0.9 3.5 0.00 0.00 0.00 55 1017.4
20260901175306 87 360 1.7 5.2 0.00 0.00 0.00 54 1017.4
20260901175203 87 360 1.7 5.2 0.00 0.00 0.00 53 1017.4
20260901175041 87 360 1.7 5.2 0.00 0.00 0.00 53 1017.4
20260901174940 87 360 1.7 5.2 0.00 0.00 0.00 53 1017.4
20260901174836 87 1 0.9 5.2 0.00 0.00 0.00 54 1017.4
20260901174735 87 360 0.9 5.2 0.00 0.00 0.00 53 1017.4
20260901174704 87 1 1.7 5.2 0.00 0.00 0.00 52 1017.4
20260901174547 87 31 2.6 5.2 0.00 0.00 0.00 52 1017.4
20260901174505 87 31 3.5 5.2 0.00 0.00 0.00 54 1017.4
20260901174343 87 34 3.5 5.2 0.00 0.00 0.00 52 1017.4
20260901174302 87 27 1.7 3.5 0.00 0.00 0.00 53 1017.5
20260901174140 87 288 0.0 1.7 0.00 0.00 0.00 51 1017.5
20260901174038 87 287 0.0 1.7 0.00 0.00 0.00 52 1017.5
20260901173941 87 288 0.9 1.7 0.00 0.00 0.00 53 1017.5
20260901173838 87 287 0.9 1.7 0.00 0.00 0.00 56 1017.5
20260901173757 87 288 0.0 2.6 0.00 0.00 0.00 55 1017.5
20260901173638 87 281 0.0 2.6 0.00 0.00 0.00 55 1017.5
20260901173536 87 288 0.0 4.3 0.00 0.00 0.00 55 1017.5
20260901173434 87 288 0.0 4.3 0.00 0.00 0.00 57 1017.5
20260901173334 87 288 0.0 4.3 0.00 0.00 0.00 57 1017.5
20260901173233 87 287 0.0 4.3 0.00 0.00 0.00 57 1017.5
20260901173204 87 288 0.0 4.3 0.00 0.00 0.00 56 1017.5
20260901173024 87 288 0.9 4.3 0.00 0.00 0.00 53 1017.5
20260901172943 86 288 0.9 4.3 0.00 0.00 0.00 53 1017.5
20260901172841 86 284 0.9 4.3 0.00 0.00 0.00 56 1017.5
20260901172739 86 284 1.7 4.3 0.00 0.00 0.00 56 1017.8
20260901172640 86 281 1.7 4.3 0.00 0.00 0.00 57 1017.8
20260901172539 86 274 0.9 2.6 0.00 0.00 0.00 56 1017.8
20260901172437 87 272 0.0 2.6 0.00 0.00 0.00 55 1017.8
20260901172355 87 272 0.0 2.6 0.00 0.00 0.00 55 1017.8
20260901172231 87 272 0.9 2.6 0.00 0.00 0.00 54 1017.8
20260901172132 87 274 1.7 2.6 0.00 0.00 0.00 54 1017.8
20260901172029 87 270 0.9 2.6 0.00 0.00 0.00 54 1017.8
20260901171929 87 265 0.0 2.6 0.00 0.00 0.00 54 1017.8
20260901171827 87 263 0.0 4.3 0.00 0.00 0.00 55 1017.8
20260901171736 87 264 0.0 4.3 0.00 0.00 0.00 53 1017.8
20260901171645 87 264 0.0 4.3 0.00 0.00 0.00 52 1017.8
20260901171523 87 264 0.9 4.3 0.00 0.00 0.00 55 1017.8
20260901171426 87 265 2.6 4.3 0.00 0.00 0.00 55 1017.8
20260901171345 87 265 2.6 4.3 0.00 0.00 0.00 55 1017.8
20260901171303 87 261 1.7 4.3 0.00 0.00 0.00 54 1017.9
20260901171140 87 260 0.9 4.3 0.00 0.00 0.00 55 1017.9
20260901171038 87 260 2.6 4.3 0.00 0.00 0.00 55 1017.9
20260901170936 87 261 3.5 4.3 0.00 0.00 0.00 55 1017.9
20260901170835 87 267 0.9 4.3 0.00 0.00 0.00 56 1017.9
20260901170737 87 268 0.9 4.3 0.00 0.00 0.00 57 1017.9
20260901170634 87 270 1.7 4.3 0.00 0.00 0.00 56 1017.9
20260901170531 87 264 0.0 2.6 0.00 0.00 0.00 56 1017.9
20260901170430 87 265 0.0 2.6 0.00 0.00 0.00 58 1017.9
20260901170330 87 264 0.0 2.6 0.00 0.00 0.00 58 1017.9
20260901170228 87 265 0.0 2.6 0.00 0.00 0.00 57 1017.9
20260901170200 87 264 0.0 2.6 0.00 0.00 0.00 56 1017.9
20260901170036 87 264 0.9 2.6 0.00 0.00 0.00 56 1017.9
20260901165941 87 264 1.7 2.6 0.00 0.00 0.00 56 1017.9
20260901165839 86 263 0.0 2.6 0.00 0.00 0.00 56 1017.9
20260901165738 86 261 0.0 2.6 0.00 0.00 0.00 56 1018.1
20260901165637 86 261 0.0 2.6 0.00 0.00 0.00 56 1018.1
20260901165534 86 258 0.9 2.6 0.00 0.00 0.00 55 1018.1
20260901165433 86 263 0.9 3.5 0.00 0.00 0.00 55 1018.1
20260901165335 86 260 0.0 3.5 0.00 0.00 0.00 54 1018.1
20260901165233 86 261 0.0 3.5 0.00 0.00 0.00 54 1018.1
20260901165132 86 261 0.9 3.5 0.00 0.00 0.00 55 1018.1
20260901165030 86 260 0.9 3.5 0.00 0.00 0.00 56 1018.1
20260901164929 86 260 1.7 3.5 0.00 0.00 0.00 56 1018.1
20260901164828 86 260 1.7 3.5 0.00 0.00 0.00 55 1018.1
20260901164726 86 261 1.7 3.5 0.00 0.00 0.00 56 1018.1
20260901164703 86 260 1.7 3.5 0.00 0.00 0.00 56 1018.1
20260901164539 86 260 1.7 3.5 0.00 0.00 0.00 56 1018.1
20260901164436 86 254 0.0 2.6 0.00 0.00 0.00 55 1018.1
20260901164334 86 254 0.0 2.6 0.00 0.00 0.00 54 1018.1
20260901164232 86 254 0.0 2.6 0.00 0.00 0.00 54 1018.2
20260901164129 86 254 0.0 2.6 0.00 0.00 0.00 54 1018.2
20260901164028 86 254 0.9 2.6 0.00 0.00 0.00 54 1018.2
20260901163926 86 251 1.7 2.6 0.00 0.00 0.00 55 1018.2
20260901163830 86 254 0.9 2.6 0.00 0.00 0.00 54 1018.2
20260901163729 86 254 0.0 2.6 0.00 0.00 0.00 55 1018.2
20260901163628 86 254 1.7 2.6 0.00 0.00 0.00 55 1018.2
20260901163547 86 254 0.9 2.6 0.00 0.00 0.00 53 1018.2
20260901163427 86 254 0.9 6.1 0.00 0.00 0.00 53 1018.2
20260901163343 86 251 1.7 6.1 0.00 0.00 0.00 56 1018.2
20260901163242 86 254 1.7 6.1 0.00 0.00 0.00 58 1018.2
20260901163213 86 256 0.9 6.1 0.00 0.00 0.00 57 1018.2
20260901163033 86 254 0.0 6.1 0.00 0.00 0.00 57 1018.2
20260901162929 86 254 0.0 6.1 0.00 0.00 0.00 55 1018.2
20260901162848 86 251 0.0 6.1 0.00 0.00 0.00 55 1018.2
20260901162745 85 254 0.9 6.1 0.00 0.00 0.00 59 1018.4
20260901162700 85 251 2.6 6.1 0.00 0.00 0.00 60 1018.4
20260901162538 85 256 1.7 6.1 0.00 0.00 0.00 59 1018.4
20260901162437 85 261 0.0 2.6 0.00 0.00 0.00 57 1018.4
20260901162335 85 258 0.0 2.6 0.00 0.00 0.00 58 1018.4
20260901162238 85 260 0.9 2.6 0.00 0.00 0.00 61 1018.4
20260901162136 85 254 0.9 2.6 0.00 0.00 0.00 61 1018.4
20260901162036 85 260 0.0 2.6 0.00 0.00 0.00 61 1018.4
20260901161954 85 258 0.0 2.6 0.00 0.00 0.00 61 1018.4
20260901161852 85 257 0.0 2.6 0.00 0.00 0.00 60 1018.4
20260901161801 85 260 0.0 2.6 0.00 0.00 0.00 61 1018.4
20260901161649 85 260 0.9 2.6 0.00 0.00 0.00 60 1018.4
20260901161546 85 260 0.9 2.6 0.00 0.00 0.00 60 1018.4
20260901161504 85 277 0.9 2.6 0.00 0.00 0.00 60 1018.4
20260901161342 85 284 0.0 2.6 0.00 0.00 0.00 61 1018.4
20260901161304 85 282 0.0 2.6 0.00 0.00 0.00 62 1018.4
20260901161141 84 284 0.0 2.6 0.00 0.00 0.00 62 1018.4
20260901161038 84 282 0.9 2.6 0.00 0.00 0.00 62 1018.4
20260901160936 84 284 0.9 2.6 0.00 0.00 0.00 62 1018.4
20260901160835 84 284 0.0 2.6 0.00 0.00 0.00 62 1018.4
20260901160735 84 284 0.9 2.6 0.00 0.00 0.00 62 1018.4
20260901160653 84 278 0.9 2.6 0.00 0.00 0.00 62 1018.4
20260901160530 84 284 0.0 1.7 0.00 0.00 0.00 62 1018.4
20260901160452 84 282 0.9 1.7 0.00 0.00 0.00 62 1018.4
20260901160330 84 282 0.0 1.7 0.00 0.00 0.00 62 1018.4
20260901160229 84 284 0.0 1.7 0.00 0.00 0.00 60 1018.4
20260901160200 84 282 0.0 1.7 0.00 0.00 0.00 60 1018.4
20260901160035 84 282 0.9 2.6 0.00 0.00 0.00 60 1018.4
20260901155933 84 282 0.9 2.6 0.00 0.00 0.00 61 1018.4
20260901155831 84 281 0.0 2.6 0.00 0.00 0.00 61 1018.4
20260901155730 84 282 0.0 2.6 0.00 0.00 0.00 60 1018.6
20260901155653 84 282 0.9 2.6 0.00 0.00 0.00 63 1018.6
20260901155550 84 284 1.7 2.6 0.00 0.00 0.00 64 1018.6
20260901155508 84 282 0.9 2.6 0.00 0.00 0.00 63 1018.6
20260901155404 83 284 0.0 2.6 0.00 0.00 0.00 62 1018.6
20260901155240 83 284 0.9 2.6 0.00 0.00 0.00 62 1018.6
20260901155139 83 284 0.9 2.6 0.00 0.00 0.00 62 1018.6
20260901155058 83 285 0.0 2.6 0.00 0.00 0.00 62 1018.6
20260901154955 83 284 0.0 2.6 0.00 0.00 0.00 63 1018.6
20260901154831 83 284 0.9 2.6 0.00 0.00 0.00 63 1018.6
20260901154739 83 281 0.0 2.6 0.00 0.00 0.00 63 1018.6
20260901154653 83 282 0.0 2.6 0.00 0.00 0.00 64 1018.6
20260901154531 83 284 0.0 2.6 0.00 0.00 0.00 64 1018.6
20260901154430 83 282 0.9 4.3 0.00 0.00 0.00 65 1018.6
20260901154329 83 284 1.7 4.3 0.00 0.00 0.00 65 1018.6
20260901154229 83 282 0.9 4.3 0.00 0.00 0.00 64 1018.6
20260901154147 83 281 1.7 4.3 0.00 0.00 0.00 63 1018.6
20260901154106 83 282 1.7 4.3 0.00 0.00 0.00 65 1018.6
20260901154004 83 282 1.7 4.3 0.00 0.00 0.00 65 1018.6
20260901153840 83 281 1.7 4.3 0.00 0.00 0.00 65 1018.6
20260901153802 83 280 0.9 4.3 0.00 0.00 0.00 65 1018.6
20260901153639 83 284 1.7 4.3 0.00 0.00 0.00 65 1018.6
20260901153537 83 281 1.7 2.6 0.00 0.00 0.00 65 1018.6
20260901153456 83 282 0.9 4.3 0.00 0.00 0.00 65 1018.6
20260901153334 83 282 0.0 4.3 0.00 0.00 0.00 65 1018.6
20260901153231 83 284 0.0 4.3 0.00 0.00 0.00 65 1018.6
20260901153203 83 282 0.0 4.3 0.00 0.00 0.00 66 1018.6
20260901153040 83 280 1.7 4.3 0.00 0.00 0.00 66 1018.6
20260901152959 82 275 0.9 4.3 0.00 0.00 0.00 66 1018.6
20260901152840 82 278 1.7 4.3 0.00 0.00 0.00 67 1018.6
20260901152738 82 275 1.7 4.3 0.00 0.00 0.00 66 1018.6
20260901152636 82 275 2.6 4.3 0.00 0.00 0.00 67 1018.6
20260901152536 82 258 1.7 3.5 0.00 0.00 0.00 67 1018.6
20260901152435 82 261 2.6 3.5 0.00 0.00 0.00 68 1018.6
20260901152334 82 258 2.6 3.5 0.00 0.00 0.00 68 1018.6
20260901152232 82 258 0.9 2.6 0.00 0.00 0.00 67 1018.6
20260901152135 82 258 1.7 2.6 0.00 0.00 0.00 67 1018.6
20260901152034 82 256 0.9 2.6 0.00 0.00 0.00 67 1018.6
20260901151952 82 256 1.7 2.6 0.00 0.00 0.00 67 1018.6
20260901151848 82 257 1.7 1.7 0.00 0.00 0.00 67 1018.6
20260901151737 82 257 0.0 2.6 0.00 0.00 0.00 67 1018.6
20260901151646 82 257 0.0 4.3 0.00 0.00 0.00 66 1018.6
20260901151543 82 257 0.9 4.3 0.00 0.00 0.00 68 1018.6
20260901151441 82 256 0.9 4.3 0.00 0.00 0.00 68 1018.6
20260901151343 82 257 0.9 4.3 0.00 0.00 0.00 68 1018.6
20260901151242 81 256 0.9 4.3 0.00 0.00 0.00 68 1018.6
20260901151141 81 256 0.0 4.3 0.00 0.00 0.00 68 1018.6
20260901151040 81 253 0.9 4.3 0.00 0.00 0.00 67 1018.6
20260901150938 81 257 1.7 4.3 0.00 0.00 0.00 67 1018.6
20260901150836 81 256 2.6 4.3 0.00 0.00 0.00 68 1018.6
20260901150734 81 254 1.7 4.3 0.00 0.00 0.00 68 1018.6
20260901150637 81 257 0.9 1.7 0.00 0.00 0.00 68 1018.6
20260901150535 81 254 0.0 1.7 0.00 0.00 0.00 68 1018.6
20260901150432 81 257 0.0 2.6 0.00 0.00 0.00 69 1018.6
20260901150330 81 256 0.0 2.6 0.00 0.00 0.00 68 1018.6
20260901150239 81 256 0.0 2.6 0.00 0.00 0.00 69 1018.6
20260901150149 81 256 0.0 2.6 0.00 0.00 0.00 69 1018.6
20260901150047 81 257 0.0 2.6 0.00 0.00 0.00 68 1018.6
20260901145945 81 256 0.0 2.6 0.00 0.00 0.00 68 1018.6
20260901145827 81 254 0.9 2.6 0.00 0.00 0.00 68 1018.6
20260901145726 81 257 0.9 2.6 0.00 0.00 0.00 68 1018.5
20260901145644 81 257 1.7 3.5 0.00 0.00 0.00 68 1018.5
20260901145602 81 256 0.9 3.5 0.00 0.00 0.00 69 1018.5
20260901145500 81 253 0.0 3.5 0.00 0.00 0.00 69 1018.5
20260901145337 81 248 0.0 3.5 0.00 0.00 0.00 68 1018.5
20260901145234 81 253 0.9 3.5 0.00 0.00 0.00 69 1018.5
20260901145133 81 253 0.0 3.5 0.00 0.00 0.00 69 1018.5
20260901145030 80 254 0.9 3.5 0.00 0.00 0.00 68 1018.5
20260901144931 80 253 1.7 3.5 0.00 0.00 0.00 69 1018.5
20260901144830 80 247 2.6 3.5 0.00 0.00 0.00 68 1018.5
20260901144739 80 253 0.9 2.6 0.00 0.00 0.00 68 1018.5
20260901144648 80 253 0.0 2.6 0.00 0.00 0.00 68 1018.5
20260901144525 80 251 1.7 2.6 0.00 0.00 0.00 68 1018.5
20260901144424 80 250 0.9 4.3 0.00 0.00 0.00 68 1018.5
20260901144342 80 253 1.7 5.2 0.00 0.00 0.00 68 1018.5
20260901144225 80 254 1.7 5.2 0.00 0.00 0.00 69 1018.7
20260901144142 80 251 1.7 5.2 0.00 0.00 0.00 69 1018.7
20260901144101 80 253 0.9 5.2 0.00 0.00 0.00 69 1018.7
20260901143941 80 250 0.0 5.2 0.00 0.00 0.00 70 1018.7
20260901143840 80 253 0.0 5.2 0.00 0.00 0.00 69 1018.7
20260901143757 80 251 0.9 5.2 0.00 0.00 0.00 68 1018.7
20260901143634 80 253 1.7 5.2 0.00 0.00 0.00 68 1018.7
20260901143533 80 251 3.5 5.2 0.00 0.00 0.00 69 1018.7
20260901143436 80 253 2.6 5.2 0.00 0.00 0.00 69 1018.7
20260901143334 80 251 1.7 5.2 0.00 0.00 0.00 68 1018.7
20260901143232 80 253 1.7 5.2 0.00 0.00 0.00 68 1018.7
20260901143202 80 250 1.7 5.2 0.00 0.00 0.00 69 1018.7
20260901143059 80 251 2.6 5.2 0.00 0.00 0.00 68 1018.7
20260901142937 80 250 1.7 4.3 0.00 0.00 0.00 69 1018.7
20260901142834 80 253 2.6 4.3 0.00 0.00 0.00 69 1018.7
20260901142733 79 253 2.6 4.3 0.00 0.00 0.00 69 1018.7
20260901142657 79 250 0.9 4.3 0.00 0.00 0.00 69 1018.7
20260901142536 79 253 1.7 4.3 0.00 0.00 0.00 68 1018.7
20260901142435 79 254 2.6 4.3 0.00 0.00 0.00 68 1018.7
20260901142332 79 251 2.6 4.3 0.00 0.00 0.00 68 1018.7
20260901142227 79 251 2.6 4.3 0.00 0.00 0.00 68 1018.7
20260901142147 79 250 2.6 4.3 0.00 0.00 0.00 68 1018.7
20260901142105 79 254 2.6 4.3 0.00 0.00 0.00 68 1018.7
20260901141942 79 250 1.7 4.3 0.00 0.00 0.00 68 1018.7
20260901141825 79 250 1.7 4.3 0.00 0.00 0.00 69 1018.7
20260901141743 79 248 0.9 4.3 0.00 0.00 0.00 69 1018.7
20260901141712 79 250 1.7 4.3 0.00 0.00 0.00 69 1018.7
20260901141531 79 243 1.7 4.3 0.00 0.00 0.00 68 1018.7
20260901141449 79 248 2.6 4.3 0.00 0.00 0.00 69 1018.7
20260901141324 79 248 0.9 4.3 0.00 0.00 0.00 69 1018.7
20260901141243 79 250 0.9 3.5 0.00 0.00 0.00 69 1018.6
20260901141142 79 248 0.9 3.5 0.00 0.00 0.00 69 1018.6
20260901141041 79 250 1.7 3.5 0.00 0.00 0.00 69 1018.6
20260901141005 79 246 0.9 3.5 0.00 0.00 0.00 70 1018.6
20260901140842 79 247 1.7 3.5 0.00 0.00 0.00 70 1018.6
20260901140740 79 248 0.0 4.3 0.00 0.00 0.00 69 1018.6
20260901140639 79 250 0.0 4.3 0.00 0.00 0.00 70 1018.6
20260901140558 79 248 0.0 4.3 0.00 0.00 0.00 71 1018.6
20260901140435 79 250 0.9 4.3 0.00 0.00 0.00 70 1018.6
20260901140332 79 248 1.7 4.3 0.00 0.00 0.00 70 1018.6
20260901140226 78 250 2.6 4.3 0.00 0.00 0.00 70 1018.6
20260901135939 78 241 1.7 4.3 0.00 0.00 0.00 71 1018.6
20260901135838 78 240 1.7 4.3 0.00 0.00 0.00 70 1018.6
20260901135755 78 241 0.9 4.3 0.00 0.00 0.00 70 1018.3
20260901135633 78 240 1.7 4.3 0.00 0.00 0.00 71 1018.3
20260901135533 78 236 2.6 5.2 0.00 0.00 0.00 71 1018.3
20260901135432 78 239 1.7 5.2 0.00 0.00 0.00 71 1018.3
20260901135333 78 240 1.7 5.2 0.00 0.00 0.00 71 1018.3
20260901135231 78 237 2.6 6.1 0.00 0.00 0.00 71 1018.3
20260901135130 78 237 2.6 6.1 0.00 0.00 0.00 71 1018.3
20260901135028 78 237 1.7 6.1 0.00 0.00 0.00 71 1018.3
20260901134927 78 239 2.6 6.1 0.00 0.00 0.00 71 1018.3
20260901134824 78 234 0.9 6.1 0.00 0.00 0.00 71 1018.3
20260901134733 78 234 2.6 6.1 0.00 0.00 0.00 71 1018.3
20260901134646 78 234 1.7 7.0 0.00 0.00 0.00 71 1018.3
20260901134524 78 222 0.9 7.0 0.00 0.00 0.00 71 1018.3
20260901134443 78 227 2.6 7.0 0.00 0.00 0.00 71 1018.3
20260901134342 78 217 2.6 7.0 0.00 0.00 0.00 72 1018.3
20260901134221 78 234 2.6 7.0 0.00 0.00 0.00 72 1018.3
20260901134143 78 234 3.5 7.0 0.00 0.00 0.00 72 1018.3
20260901134040 78 234 4.3 7.0 0.00 0.00 0.00 72 1018.3
20260901133938 78 234 5.2 7.0 0.00 0.00 0.00 72 1018.3
20260901133840 78 219 4.3 7.0 0.00 0.00 0.00 72 1018.3
20260901133740 78 220 5.2 7.0 0.00 0.00 0.00 72 1018.3
20260901133637 77 233 3.5 6.1 0.00 0.00 0.00 72 1018.3
20260901133555 77 234 1.7 6.1 0.00 0.00 0.00 72 1018.3
20260901133431 77 234 3.5 6.1 0.00 0.00 0.00 72 1018.3
20260901133330 77 239 4.3 7.0 0.00 0.00 0.00 72 1018.3
20260901133228 77 233 2.6 7.0 0.00 0.00 0.00 72 1018.3
20260901133159 77 230 4.3 7.0 0.00 0.00 0.00 73 1018.3
20260901133037 77 232 3.5 7.0 0.00 0.00 0.00 72 1018.3
20260901132936 77 230 2.6 7.0 0.00 0.00 0.00 72 1018.3
20260901132834 77 226 1.7 7.0 0.00 0.00 0.00 72 1018.3
20260901132733 77 227 1.7 7.0 0.00 0.00 0.00 72 1018.4
20260901132651 77 229 3.5 7.0 0.00 0.00 0.00 72 1018.4
20260901132529 77 229 5.2 7.0 0.00 0.00 0.00 72 1018.4
20260901132428 77 232 3.5 7.0 0.00 0.00 0.00 72 1018.4
20260901132330 77 232 2.6 7.0 0.00 0.00 0.00 72 1018.4
20260901132229 77 232 3.5 8.7 0.00 0.00 0.00 72 1018.4
20260901132147 77 229 2.6 8.7 0.00 0.00 0.00 72 1018.4
20260901132026 77 230 4.3 8.7 0.00 0.00 0.00 72 1018.4
20260901131924 77 229 4.3 8.7 0.00 0.00 0.00 72 1018.4
20260901131823 77 229 5.2 8.7 0.00 0.00 0.00 72 1018.4
20260901131735 77 232 5.2 8.7 0.00 0.00 0.00 72 1018.4
20260901131649 77 215 3.5 8.7 0.00 0.00 0.00 72 1018.4
20260901131528 77 220 4.3 8.7 0.00 0.00 0.00 72 1018.4
20260901131427 77 215 6.1 8.7 0.00 0.00 0.00 72 1018.4
20260901131324 77 224 4.3 7.0 0.00 0.00 0.00 72 1018.4
20260901131224 77 223 5.2 7.0 0.00 0.00 0.00 72 1018.3
20260901131143 77 224 3.5 7.0 0.00 0.00 0.00 72 1018.3
20260901131041 77 223 3.5 7.0 0.00 0.00 0.00 72 1018.3
20260901130958 77 227 3.5 7.0 0.00 0.00 0.00 72 1018.3
20260901130840 77 224 3.5 7.0 0.00 0.00 0.00 72 1018.3
20260901130739 77 229 5.2 7.0 0.00 0.00 0.00 72 1018.3
20260901130637 77 229 3.5 7.0 0.00 0.00 0.00 72 1018.3
20260901130536 77 223 5.2 8.7 0.00 0.00 0.00 73 1018.3
20260901130434 77 220 5.2 8.7 0.00 0.00 0.00 73 1018.3
20260901130334 76 217 2.6 8.7 0.00 0.00 0.00 73 1018.3
20260901130253 76 217 2.6 8.7 0.00 0.00 0.00 73 1018.3
20260901130201 76 216 4.3 8.7 0.00 0.00 0.00 73 1018.3
20260901130043 76 217 3.5 8.7 0.00 0.00 0.00 73 1018.3
20260901125942 76 216 2.6 8.7 0.00 0.00 0.00 73 1018.3
20260901125840 76 222 3.5 8.7 0.00 0.00 0.00 73 1018.3
20260901125737 76 200 2.6 8.7 0.00 0.00 0.00 73 1018.4
20260901125637 76 215 5.2 8.7 0.00 0.00 0.00 74 1018.4
20260901125537 76 208 5.2 8.7 0.00 0.00 0.00 73 1018.4
20260901125440 76 205 5.2 8.7 0.00 0.00 0.00 73 1018.4
20260901125339 76 215 3.5 8.7 0.00 0.00 0.00 73 1018.4
20260901125236 76 212 3.5 8.7 0.00 0.00 0.00 73 1018.4
20260901125135 76 206 4.3 8.7 0.00 0.00 0.00 73 1018.4
20260901125033 76 222 2.6 7.0 0.00 0.00 0.00 74 1018.4
20260901124931 76 220 4.3 7.0 0.00 0.00 0.00 74 1018.4
20260901124829 76 219 1.7 7.0 0.00 0.00 0.00 74 1018.4
20260901124743 76 217 4.3 7.0 0.00 0.00 0.00 74 1018.4
20260901124653 76 215 4.3 7.0 0.00 0.00 0.00 73 1018.4
20260901124551 76 217 3.5 7.0 0.00 0.00 0.00 74 1018.4
20260901124428 76 217 1.7 7.0 0.00 0.00 0.00 73 1018.4
20260901124330 76 219 4.3 7.0 0.00 0.00 0.00 74 1018.4
20260901124229 76 222 4.3 6.1 0.00 0.00 0.00 74 1018.2
20260901124147 76 222 3.5 6.1 0.00 0.00 0.00 74 1018.2
20260901124025 76 224 3.5 6.1 0.00 0.00 0.00 74 1018.2
20260901123927 76 223 5.2 8.7 0.00 0.00 0.00 74 1018.2
20260901123845 76 230 5.2 8.7 0.00 0.00 0.00 74 1018.2
20260901123743 76 240 5.2 8.7 0.00 0.00 0.00 74 1018.2
20260901123640 76 230 4.3 8.7 0.00 0.00 0.00 74 1018.2
20260901123538 76 234 3.5 8.7 0.00 0.00 0.00 74 1018.2
20260901123435 76 227 4.3 8.7 0.00 0.00 0.00 73 1018.2
20260901123334 76 226 2.6 8.7 0.00 0.00 0.00 73 1018.2
20260901123253 76 224 3.5 8.7 0.00 0.00 0.00 73 1018.2
20260901123202 76 226 5.2 8.7 0.00 0.00 0.00 73 1018.2
20260901123059 76 215 6.1 8.7 0.00 0.00 0.00 73 1018.2
20260901122941 76 220 6.1 8.7 0.00 0.00 0.00 73 1018.2
20260901122839 76 219 5.2 8.7 0.00 0.00 0.00 73 1018.2
20260901122738 76 222 4.3 8.7 0.00 0.00 0.00 73 1018.0
20260901122638 76 226 5.2 8.7 0.00 0.00 0.00 73 1018.0
20260901122556 76 223 4.3 8.7 0.00 0.00 0.00 73 1018.0
20260901122433 76 206 5.2 8.7 0.00 0.00 0.00 73 1018.0
20260901122331 76 236 4.3 8.7 0.00 0.00 0.00 73 1018.0
20260901122234 76 234 6.1 8.7 0.00 0.00 0.00 73 1018.0
20260901122132 76 196 5.2 8.7 0.00 0.00 0.00 73 1018.0
20260901122030 76 232 5.2 8.7 0.00 0.00 0.00 73 1018.0
20260901121928 76 234 5.2 8.7 0.00 0.00 0.00 73 1018.0
20260901121849 76 233 5.2 8.7 0.00 0.00 0.00 73 1018.0
20260901121737 76 224 4.3 8.7 0.00 0.00 0.00 73 1018.0
20260901121647 76 220 5.2 8.7 0.00 0.00 0.00 73 1018.0
20260901121545 76 216 5.2 8.7 0.00 0.00 0.00 72 1018.0
20260901121442 76 224 2.6 8.7 0.00 0.00 0.00 72 1018.0
20260901121345 76 222 5.2 8.7 0.00 0.00 0.00 72 1018.0
20260901121243 76 224 5.2 8.7 0.00 0.00 0.00 72 1017.7
20260901121142 76 234 4.3 8.7 0.00 0.00 0.00 72 1017.7
20260901121102 76 232 3.5 8.7 0.00 0.00 0.00 72 1017.7
20260901120938 76 233 5.2 8.7 0.00 0.00 0.00 72 1017.7
20260901120858 76 220 6.1 8.7 0.00 0.00 0.00 71 1017.7
20260901120755 76 217 5.2 7.0 0.00 0.00 0.00 71 1017.7
20260901120632 76 223 4.3 7.0 0.00 0.00 0.00 71 1017.7
20260901120530 76 210 4.3 7.0 0.00 0.00 0.00 71 1017.7
20260901120432 76 220 2.6 7.0 0.00 0.00 0.00 71 1017.7
20260901120329 76 222 2.6 7.0 0.00 0.00 0.00 71 1017.7
20260901120228 76 222 5.2 7.0 0.00 0.00 0.00 71 1017.7
20260901120158 76 212 4.3 7.0 0.00 0.00 0.00 71 1017.7
20260901120034 76 224 5.2 7.0 0.00 0.00 0.00 71 1017.7
20260901115932 76 232 4.3 7.0 0.00 0.00 0.00 71 1017.7
20260901115831 76 222 5.2 7.0 0.00 0.00 0.00 71 1017.7
20260901115735 76 224 5.2 7.0 0.00 0.00 0.00 71 1017.6
20260901115634 76 226 4.3 7.0 0.00 0.00 0.00 71 1017.6
20260901115551 76 237 2.6 7.0 0.00 0.00 0.00 71 1017.6
20260901115433 76 237 3.5 7.0 0.00 0.00 0.00 71 1017.6
20260901115335 76 223 4.3 7.0 0.00 0.00 0.00 71 1017.6
20260901115234 76 227 3.5 7.0 0.00 0.00 0.00 71 1017.6
20260901115152 76 227 4.3 7.0 0.00 0.00 0.00 71 1017.6
20260901115030 76 230 5.2 7.0 0.00 0.00 0.00 71 1017.6
20260901114952 76 234 5.2 7.0 0.00 0.00 0.00 70 1017.6
20260901114830 76 229 3.5 7.0 0.00 0.00 0.00 70 1017.6
20260901114749 76 222 3.5 7.0 0.00 0.00 0.00 70 1017.6
20260901114718 76 219 4.3 7.8 0.00 0.00 0.00 70 1017.6
20260901114556 76 229 5.2 7.8 0.00 0.00 0.00 70 1017.6
20260901114451 76 220 4.3 7.8 0.00 0.00 0.00 70 1017.6
20260901114330 76 209 5.2 7.8 0.00 0.00 0.00 70 1017.6
20260901114227 76 215 4.3 7.8 0.00 0.00 0.00 70 1017.5
20260901114145 76 206 4.3 7.8 0.00 0.00 0.00 70 1017.5
20260901114042 76 219 3.5 7.8 0.00 0.00 0.00 70 1017.5
20260901113944 76 220 4.3 7.8 0.00 0.00 0.00 70 1017.5
20260901113902 76 213 4.3 7.8 0.00 0.00 0.00 70 1017.5
20260901113741 76 212 5.2 7.8 0.00 0.00 0.00 70 1017.5
20260901113640 76 220 4.3 7.8 0.00 0.00 0.00 70 1017.5
20260901113539 76 230 4.3 7.8 0.00 0.00 0.00 70 1017.5
20260901113437 76 212 4.3 7.8 0.00 0.00 0.00 70 1017.5
20260901113336 76 219 4.3 7.8 0.00 0.00 0.00 70 1017.5
20260901113305 76 223 3.5 7.8 0.00 0.00 0.00 70 1017.5
20260901113158 76 223 3.5 7.8 0.00 0.00 0.00 70 1017.5
20260901113054 76 219 3.5 9.6 0.00 0.00 0.00 70 1017.5
20260901112952 76 209 4.3 9.6 0.00 0.00 0.00 70 1017.5
20260901112830 76 226 5.2 9.6 0.00 0.00 0.00 70 1017.5
20260901112748 76 217 5.2 9.6 0.00 0.00 0.00 69 1017.4
20260901112645 76 236 4.3 9.6 0.00 0.00 0.00 70 1017.4
20260901112544 76 232 3.5 9.6 0.00 0.00 0.00 70 1017.4
20260901112503 76 222 3.5 9.6 0.00 0.00 0.00 70 1017.4
20260901112340 76 227 3.5 9.6 0.00 0.00 0.00 70 1017.4
20260901112223 76 219 6.1 9.6 0.00 0.00 0.00 70 1017.4
20260901112124 76 220 6.1 7.8 0.00 0.00 0.00 70 1017.4
20260901112043 76 210 5.2 7.8 0.00 0.00 0.00 70 1017.4
20260901111940 76 229 4.3 6.1 0.00 0.00 0.00 70 1017.4
20260901111839 76 226 4.3 7.0 0.00 0.00 0.00 70 1017.4
20260901111737 76 230 2.6 7.8 0.00 0.00 0.00 69 1017.4
20260901111707 76 236 5.2 7.8 0.00 0.00 0.00 69 1017.4
20260901111543 76 230 4.3 7.8 0.00 0.00 0.00 69 1017.4
20260901111446 76 219 3.5 7.8 0.00 0.00 0.00 69 1017.4
20260901111404 75 229 4.3 7.8 0.00 0.00 0.00 69 1017.4
20260901111241 75 227 4.3 8.7 0.00 0.00 0.00 69 1017.2
20260901111140 75 230 3.5 8.7 0.00 0.00 0.00 69 1017.2
20260901111038 75 229 4.3 8.7 0.00 0.00 0.00 69 1017.2
20260901110936 75 232 6.1 8.7 0.00 0.00 0.00 69 1017.2
20260901110855 75 237 5.2 8.7 0.00 0.00 0.00 70 1017.2
20260901110734 75 224 4.3 9.6 0.00 0.00 0.00 69 1017.2
20260901110636 75 230 4.3 9.6 0.00 0.00 0.00 69 1017.2
20260901110534 75 232 4.3 9.6 0.00 0.00 0.00 69 1017.2
20260901110432 75 230 5.2 9.6 0.00 0.00 0.00 69 1017.2
20260901110350 75 217 6.1 9.6 0.00 0.00 0.00 69 1017.2
20260901110230 75 213 5.2 9.6 0.00 0.00 0.00 70 1017.2
20260901110201 75 223 5.2 9.6 0.00 0.00 0.00 70 1017.2
20260901110037 75 217 4.3 9.6 0.00 0.00 0.00 70 1017.2
20260901105935 75 205 5.2 9.6 0.00 0.00 0.00 70 1017.2
20260901105838 75 213 5.2 9.6 0.00 0.00 0.00 70 1017.2
20260901105736 75 220 6.1 9.6 0.00 0.00 0.00 70 1017.2
20260901105636 75 219 6.1 9.6 0.00 0.00 0.00 70 1017.2
20260901105536 75 213 6.1 9.6 0.00 0.00 0.00 70 1017.2
20260901105433 75 192 4.3 8.7 0.00 0.00 0.00 69 1017.2
20260901105330 75 226 5.2 8.7 0.00 0.00 0.00 70 1017.2
20260901105229 75 227 5.2 8.7 0.00 0.00 0.00 70 1017.2
20260901105130 75 213 6.1 8.7 0.00 0.00 0.00 70 1017.2
20260901105029 75 195 5.2 9.6 0.00 0.00 0.00 70 1017.2
20260901104926 75 208 4.3 9.6 0.00 0.00 0.00 70 1017.2
20260901104824 75 208 5.2 9.6 0.00 0.00 0.00 70 1017.2
20260901104724 75 212 5.2 9.6 0.00 0.00 0.00 70 1017.2
20260901104653 75 205 4.3 9.6 0.00 0.00 0.00 70 1017.2
20260901104531 75 227 4.3 9.6 0.00 0.00 0.00 70 1017.2
20260901104433 75 216 5.2 9.6 0.00 0.00 0.00 70 1017.2
20260901104332 75 223 5.2 9.6 0.00 0.00 0.00 70 1017.2
20260901104231 75 199 6.1 9.6 0.00 0.00 0.00 70 1017.0
20260901104130 75 202 4.3 9.6 0.00 0.00 0.00 70 1017.0
20260901104028 75 216 4.3 9.6 0.00 0.00 0.00 70 1017.0
20260901103928 75 216 5.2 9.6 0.00 0.00 0.00 70 1017.0
20260901103830 75 200 7.0 9.6 0.00 0.00 0.00 70 1017.0
20260901103752 75 222 4.3 8.7 0.00 0.00 0.00 70 1017.0
20260901103629 75 215 5.2 8.7 0.00 0.00 0.00 70 1017.0
20260901103526 75 209 5.2 8.7 0.00 0.00 0.00 70 1017.0
20260901103426 75 209 4.3 8.7 0.00 0.00 0.00 70 1017.0
20260901103326 75 210 3.5 8.7 0.00 0.00 0.00 70 1017.0
20260901103238 75 206 6.1 8.7 0.00 0.00 0.00 70 1017.0
20260901103149 75 212 3.5 8.7 0.00 0.00 0.00 70 1017.0
20260901103030 75 205 4.3 8.7 0.00 0.00 0.00 71 1017.0
20260901102927 75 203 3.5 7.8 0.00 0.00 0.00 71 1017.0
20260901102846 75 206 4.3 7.8 0.00 0.00 0.00 71 1017.0
20260901102805 75 205 5.2 7.8 0.00 0.00 0.00 71 1017.0
20260901102641 75 209 3.5 7.8 0.00 0.00 0.00 71 1017.0
20260901102539 75 192 4.3 10.4 0.00 0.00 0.00 71 1017.0
20260901102438 75 185 5.2 10.4 0.00 0.00 0.00 71 1017.0
20260901102336 75 212 4.3 10.4 0.00 0.00 0.00 71 1017.0
20260901102238 75 196 3.5 10.4 0.00 0.00 0.00 71 1017.0
20260901102136 75 199 5.2 10.4 0.00 0.00 0.00 71 1017.0
20260901102035 75 215 5.2 10.4 0.00 0.00 0.00 71 1017.0
20260901101957 75 210 3.5 10.4 0.00 0.00 0.00 71 1017.0
20260901101854 75 210 3.5 10.4 0.00 0.00 0.00 71 1017.0
20260901101731 75 198 5.2 10.4 0.00 0.00 0.00 70 1017.0
20260901101700 75 195 5.2 10.4 0.00 0.00 0.00 71 1017.0
20260901101538 75 206 4.3 10.4 0.00 0.00 0.00 70 1017.0
20260901101434 75 203 4.3 10.4 0.00 0.00 0.00 71 1017.0
20260901101353 75 202 4.3 10.4 0.00 0.00 0.00 71 1017.0
20260901101234 75 193 4.3 10.4 0.00 0.00 0.00 71 1016.9
20260901101133 75 203 4.3 8.7 0.00 0.00 0.00 71 1016.9
20260901101031 75 193 4.3 8.7 0.00 0.00 0.00 71 1016.9
20260901100933 75 188 4.3 8.7 0.00 0.00 0.00 71 1016.9
20260901100834 75 208 4.3 8.7 0.00 0.00 0.00 71 1016.9
20260901100752 75 205 4.3 8.7 0.00 0.00 0.00 71 1016.9
20260901100628 75 198 3.5 8.7 0.00 0.00 0.00 71 1016.9
20260901100530 75 198 3.5 8.7 0.00 0.00 0.00 71 1016.9
20260901100430 75 193 4.3 8.7 0.00 0.00 0.00 71 1016.9
20260901100329 75 198 5.2 8.7 0.00 0.00 0.00 71 1016.9
20260901100227 75 198 4.3 8.7 0.00 0.00 0.00 71 1016.9
20260901100158 75 199 4.3 8.7 0.00 0.00 0.00 71 1016.9
20260901100054 75 186 5.2 8.7 0.00 0.00 0.00 72 1016.9
20260901095952 75 179 5.2 8.7 0.00 0.00 0.00 72 1016.9
20260901095829 75 193 4.3 8.7 0.00 0.00 0.00 72 1016.9
20260901095733 75 184 3.5 7.0 0.00 0.00 0.00 72 1016.7
20260901095632 75 185 1.7 7.0 0.00 0.00 0.00 72 1016.7
20260901095550 75 192 3.5 7.0 0.00 0.00 0.00 72 1016.7
20260901095427 75 188 3.5 7.0 0.00 0.00 0.00 73 1016.7
20260901095326 76 210 3.5 7.0 0.00 0.00 0.00 73 1016.7
20260901095224 76 193 2.6 7.0 0.00 0.00 0.00 73 1016.7
20260901095143 76 185 2.6 7.0 0.00 0.00 0.00 73 1016.7
20260901095026 76 186 3.5 7.0 0.00 0.00 0.00 72 1016.7
20260901094924 76 189 2.6 7.0 0.00 0.00 0.00 72 1016.7
20260901094843 76 191 3.5 7.0 0.00 0.00 0.00 72 1016.7
20260901094742 76 182 2.6 6.1 0.00 0.00 0.00 72 1016.7
20260901094653 76 184 2.6 6.1 0.00 0.00 0.00 72 1016.7
20260901094531 76 179 2.6 6.1 0.00 0.00 0.00 72 1016.7
20260901094449 76 178 3.5 6.1 0.00 0.00 0.00 72 1016.7
20260901094327 76 185 4.3 6.1 0.00 0.00 0.00 72 1016.7
20260901094230 76 181 2.6 5.2 0.00 0.00 0.00 72 1016.7
20260901094128 76 181 2.6 4.3 0.00 0.00 0.00 72 1016.7
20260901094027 76 182 1.7 4.3 0.00 0.00 0.00 72 1016.7
20260901093924 76 176 2.6 4.3 0.00 0.00 0.00 72 1016.7
20260901093842 76 182 2.6 4.3 0.00 0.00 0.00 72 1016.7
20260901093740 76 176 1.7 4.3 0.00 0.00 0.00 72 1016.7
20260901093641 76 178 2.6 6.1 0.00 0.00 0.00 71 1016.7
20260901093540 76 178 1.7 6.1 0.00 0.00 0.00 71 1016.7
20260901093442 76 178 1.7 6.1 0.00 0.00 0.00 71 1016.7
20260901093401 76 179 1.7 6.1 0.00 0.00 0.00 71 1016.7
20260901093257 76 174 2.6 6.1 0.00 0.00 0.00 72 1016.7
20260901093207 76 174 1.7 6.1 0.00 0.00 0.00 72 1016.7
20260901093042 76 175 1.7 6.1 0.00 0.00 0.00 73 1016.7
20260901092941 76 178 2.6 6.1 0.00 0.00 0.00 73 1016.7
20260901092900 76 179 2.6 6.1 0.00 0.00 0.00 73 1016.7
20260901092739 76 179 2.6 6.1 0.00 0.00 0.00 72 1016.5
20260901092656 76 178 1.7 5.2 0.00 0.00 0.00 72 1016.5
20260901092553 76 178 1.7 5.2 0.00 0.00 0.00 72 1016.5
20260901092434 76 181 1.7 5.2 0.00 0.00 0.00 72 1016.5
20260901092332 76 184 1.7 5.2 0.00 0.00 0.00 72 1016.5
20260901092251 76 184 1.7 5.2 0.00 0.00 0.00 72 1016.5
20260901092128 76 182 2.6 5.2 0.00 0.00 0.00 72 1016.5
20260901092026 76 181 1.7 5.2 0.00 0.00 0.00 72 1016.5
20260901091926 76 184 3.5 5.2 0.00 0.00 0.00 71 1016.5
20260901091824 76 186 2.6 5.2 0.00 0.00 0.00 71 1016.5
20260901091733 76 184 1.7 5.2 0.00 0.00 0.00 71 1016.5
20260901091646 76 179 1.7 5.2 0.00 0.00 0.00 71 1016.5
20260901091524 76 184 2.6 5.2 0.00 0.00 0.00 71 1016.5
20260901091443 76 174 1.7 5.2 0.00 0.00 0.00 71 1016.5
20260901091341 76 175 1.7 5.2 0.00 0.00 0.00 71 1016.5
20260901091239 76 178 1.7 5.2 0.00 0.00 0.00 71 1016.4
20260901091138 76 178 1.7 5.2 0.00 0.00 0.00 71 1016.4
20260901091036 76 179 2.6 6.1 0.00 0.00 0.00 71 1016.4
20260901090939 76 181 2.6 6.1 0.00 0.00 0.00 71 1016.4
20260901090837 76 179 1.7 6.1 0.00 0.00 0.00 71 1016.4
20260901090735 76 184 1.7 6.1 0.00 0.00 0.00 71 1016.4
20260901090635 76 182 1.7 6.1 0.00 0.00 0.00 71 1016.4
20260901090534 76 188 1.7 6.1 0.00 0.00 0.00 71 1016.4
20260901090431 76 186 3.5 6.1 0.00 0.00 0.00 71 1016.4
20260901090329 76 184 2.6 6.1 0.00 0.00 0.00 71 1016.4
20260901090232 76 181 3.5 6.1 0.00 0.00 0.00 71 1016.4
20260901090203 76 185 2.6 6.1 0.00 0.00 0.00 71 1016.4
20260901090040 76 179 2.6 6.1 0.00 0.00 0.00 71 1016.4
20260901085937 76 175 2.6 6.1 0.00 0.00 0.00 71 1016.4
20260901085836 76 176 1.7 6.1 0.00 0.00 0.00 71 1016.4
20260901085733 76 172 2.6 6.1 0.00 0.00 0.00 71 1016.4
20260901085630 76 174 1.7 6.1 0.00 0.00 0.00 71 1016.4
20260901085529 76 174 1.7 6.1 0.00 0.00 0.00 72 1016.4
20260901085431 76 171 3.5 6.1 0.00 0.00 0.00 72 1016.4
20260901085329 76 171 1.7 6.1 0.00 0.00 0.00 72 1016.4
20260901085227 76 175 1.7 6.1 0.00 0.00 0.00 71 1016.4
20260901085127 76 178 2.6 10.4 0.00 0.00 0.00 71 1016.4
20260901085045 76 178 2.6 10.4 0.00 0.00 0.00 71 1016.4
20260901084943 76 176 2.6 10.4 0.00 0.00 0.00 71 1016.4
20260901084841 76 171 3.5 10.4 0.00 0.00 0.00 71 1016.4
20260901084724 76 181 3.5 10.4 0.00 0.00 0.00 71 1016.4
20260901084655 76 179 2.6 10.4 0.00 0.00 0.00 71 1016.4
20260901084552 76 185 1.7 10.4 0.00 0.00 0.00 70 1016.4
20260901084450 76 184 3.5 10.4 0.00 0.00 0.00 70 1016.4
20260901084328 76 195 5.2 10.4 0.00 0.00 0.00 69 1016.4
20260901084226 76 176 3.5 7.8 0.00 0.00 0.00 69 1016.4
20260901084145 76 184 4.3 7.8 0.00 0.00 0.00 70 1016.4
20260901084103 76 184 4.3 7.8 0.00 0.00 0.00 70 1016.4
20260901083925 76 196 4.3 7.8 0.00 0.00 0.00 70 1016.4
20260901083842 76 191 3.5 7.0 0.00 0.00 0.00 70 1016.4
20260901083741 76 186 4.3 7.0 0.00 0.00 0.00 70 1016.4
20260901083638 76 206 3.5 7.0 0.00 0.00 0.00 70 1016.4
20260901083535 76 185 2.6 6.1 0.00 0.00 0.00 70 1016.4
20260901083434 76 191 3.5 6.1 0.00 0.00 0.00 70 1016.4
20260901083331 76 191 2.6 6.1 0.00 0.00 0.00 70 1016.4
20260901083241 76 169 3.5 6.1 0.00 0.00 0.00 70 1016.4
20260901083150 76 172 2.6 6.1 0.00 0.00 0.00 71 1016.4
20260901083029 76 174 2.6 6.1 0.00 0.00 0.00 71 1016.4
20260901082929 77 167 2.6 6.1 0.00 0.00 0.00 71 1016.4
20260901082827 77 169 3.5 6.1 0.00 0.00 0.00 71 1016.4
20260901082746 77 169 4.3 6.1 0.00 0.00 0.00 71 1016.4
20260901082703 77 169 3.5 6.1 0.00 0.00 0.00 71 1016.4
20260901082540 77 174 2.6 6.1 0.00 0.00 0.00 71 1016.4
20260901082438 77 164 2.6 6.1 0.00 0.00 0.00 71 1016.4
20260901082339 77 167 1.7 6.1 0.00 0.00 0.00 71 1016.4
20260901082238 77 162 3.5 6.1 0.00 0.00 0.00 71 1016.4
20260901082135 77 167 4.3 6.1 0.00 0.00 0.00 71 1016.4
20260901082034 77 161 4.3 5.2 0.00 0.00 0.00 71 1016.4
20260901081933 77 161 3.5 6.1 0.00 0.00 0.00 71 1016.4
20260901081832 77 162 2.6 6.1 0.00 0.00 0.00 71 1016.4
20260901081740 77 164 3.5 6.1 0.00 0.00 0.00 71 1016.4
20260901081652 77 165 3.5 6.1 0.00 0.00 0.00 71 1016.4
20260901081554 77 168 2.6 6.1 0.00 0.00 0.00 71 1016.4
20260901081432 77 168 3.5 6.1 0.00 0.00 0.00 70 1016.4
20260901081350 77 162 4.3 6.1 0.00 0.00 0.00 70 1016.4
20260901081308 77 157 2.6 6.1 0.00 0.00 0.00 70 1016.4
20260901081204 77 162 2.6 6.1 0.00 0.00 0.00 70 1016.4
20260901081041 77 162 3.5 6.1 0.00 0.00 0.00 70 1016.4
20260901080959 77 164 2.6 5.2 0.00 0.00 0.00 70 1016.4
20260901080837 77 164 4.3 6.1 0.00 0.00 0.00 70 1016.4
20260901080755 77 162 3.5 6.1 0.00 0.00 0.00 70 1016.4
20260901080637 77 168 4.3 6.1 0.00 0.00 0.00 71 1016.4
20260901080534 77 169 2.6 6.1 0.00 0.00 0.00 71 1016.4
20260901080433 77 165 2.6 6.1 0.00 0.00 0.00 71 1016.4
20260901080330 77 162 3.5 6.1 0.00 0.00 0.00 71 1016.4
20260901080240 77 158 3.5 6.1 0.00 0.00 0.00 71 1016.4
20260901080150 77 157 3.5 6.1 0.00 0.00 0.00 71 1016.4
20260901080027 77 152 4.3 6.1 0.00 0.00 0.00 71 1016.4
20260901075930 77 140 2.6 6.1 0.00 0.00 0.00 71 1016.4
20260901075829 77 147 5.2 6.1 0.00 0.00 0.00 71 1016.4
20260901075727 77 154 4.3 6.1 0.00 0.00 0.00 71 1016.4
20260901075625 77 151 5.2 6.1 0.00 0.00 0.00 71 1016.4
20260901075524 77 145 4.3 6.1 0.00 0.00 0.00 71 1016.4
20260901075443 77 144 5.2 7.0 0.00 0.00 0.00 71 1016.4
20260901075342 77 144 4.3 7.0 0.00 0.00 0.00 71 1016.4
20260901075300 77 147 4.3 7.0 0.00 0.00 0.00 71 1016.4
20260901075143 77 144 4.3 7.0 0.00 0.00 0.00 70 1016.4
20260901075042 77 144 4.3 7.0 0.00 0.00 0.00 70 1016.4
20260901074941 77 145 4.3 7.0 0.00 0.00 0.00 70 1016.4
20260901074840 77 143 5.2 7.0 0.00 0.00 0.00 71 1016.4
20260901074740 77 150 4.3 7.0 0.00 0.00 0.00 71 1016.4
20260901074710 77 144 2.6 7.0 0.00 0.00 0.00 71 1016.4
20260901074526 77 130 3.5 7.0 0.00 0.00 0.00 71 1016.4
20260901074448 77 110 3.5 7.0 0.00 0.00 0.00 71 1016.4
20260901074405 77 143 3.5 7.0 0.00 0.00 0.00 71 1016.4
20260901074242 77 140 3.5 7.0 0.00 0.00 0.00 71 1016.4
20260901074141 77 137 2.6 6.1 0.00 0.00 0.00 71 1016.4
20260901074038 77 151 2.6 6.1 0.00 0.00 0.00 71 1016.4
20260901073936 77 148 5.2 6.1 0.00 0.00 0.00 71 1016.4
20260901073835 77 144 4.3 6.1 0.00 0.00 0.00 70 1016.4
20260901073736 77 144 4.3 6.1 0.00 0.00 0.00 71 1016.4
20260901073658 77 137 4.3 6.1 0.00 0.00 0.00 71 1016.4
20260901073535 77 131 5.2 6.1 0.00 0.00 0.00 71 1016.4
20260901073434 77 131 4.3 6.1 0.00 0.00 0.00 71 1016.4
20260901073352 77 121 3.5 6.1 0.00 0.00 0.00 70 1016.4
20260901073242 77 114 3.5 6.1 0.00 0.00 0.00 71 1016.4
20260901073153 77 109 4.3 6.1 0.00 0.00 0.00 71 1016.4
20260901073049 77 138 3.5 6.1 0.00 0.00 0.00 71 1016.4
20260901072926 77 137 3.5 6.1 0.00 0.00 0.00 71 1016.4
20260901072843 77 141 3.5 6.1 0.00 0.00 0.00 71 1016.4
20260901072725 77 126 3.5 6.1 0.00 0.00 0.00 71 1016.4
20260901072642 77 143 3.5 6.1 0.00 0.00 0.00 71 1016.4
20260901072541 77 145 3.5 6.1 0.00 0.00 0.00 71 1016.4
20260901072439 77 145 4.3 6.1 0.00 0.00 0.00 71 1016.4
20260901072338 77 141 4.3 6.1 0.00 0.00 0.00 70 1016.4
20260901072256 77 144 4.3 6.1 0.00 0.00 0.00 70 1016.4
20260901072132 77 145 4.3 6.1 0.00 0.00 0.00 70 1016.4
20260901072029 77 141 4.3 6.1 0.00 0.00 0.00 70 1016.4
20260901071931 77 137 3.5 6.1 0.00 0.00 0.00 70 1016.4
20260901071830 77 136 3.5 6.1 0.00 0.00 0.00 70 1016.4
20260901071728 77 134 3.5 6.1 0.00 0.00 0.00 70 1016.4
20260901071658 77 121 4.3 6.1 0.00 0.00 0.00 71 1016.4
20260901071535 77 143 4.3 6.1 0.00 0.00 0.00 71 1016.4
20260901071434 77 143 4.3 6.1 0.00 0.00 0.00 71 1016.4
20260901071332 77 134 3.5 6.1 0.00 0.00 0.00 71 1016.4
20260901071234 77 143 4.3 6.1 0.00 0.00 0.00 71 1016.6
20260901071132 77 144 4.3 6.1 0.00 0.00 0.00 71 1016.6
20260901071031 77 145 4.3 6.1 0.00 0.00 0.00 71 1016.6
20260901070930 77 144 4.3 6.1 0.00 0.00 0.00 71 1016.6
20260901070828 77 141 3.5 6.1 0.00 0.00 0.00 71 1016.6
20260901070727 77 145 3.5 6.1 0.00 0.00 0.00 71 1016.6
20260901070630 77 148 4.3 6.1 0.00 0.00 0.00 71 1016.6
20260901070529 77 147 3.5 7.0 0.00 0.00 0.00 71 1016.6
20260901070427 77 147 3.5 7.0 0.00 0.00 0.00 70 1016.6
20260901070326 77 147 3.5 7.0 0.00 0.00 0.00 71 1016.6
20260901070225 77 147 4.3 7.0 0.00 0.00 0.00 71 1016.6
20260901070157 77 143 3.5 7.0 0.00 0.00 0.00 71 1016.6
20260901070034 77 144 2.6 7.0 0.00 0.00 0.00 71 1016.6
20260901065935 77 144 4.3 7.0 0.00 0.00 0.00 71 1016.6
20260901065838 77 148 4.3 7.0 0.00 0.00 0.00 70 1016.6
20260901065738 77 152 4.3 7.0 0.00 0.00 0.00 70 1016.6
20260901065640 77 151 3.5 7.0 0.00 0.00 0.00 70 1016.6
20260901065538 77 154 2.6 7.0 0.00 0.00 0.00 70 1016.6
20260901065436 77 150 1.7 7.0 0.00 0.00 0.00 71 1016.6
20260901065335 77 150 3.5 7.0 0.00 0.00 0.00 71 1016.6
20260901065237 77 145 3.5 7.0 0.00 0.00 0.00 71 1016.6
20260901065135 77 150 5.2 7.0 0.00 0.00 0.00 70 1016.6
20260901065034 77 143 4.3 7.0 0.00 0.00 0.00 71 1016.6
20260901064932 77 155 3.5 7.0 0.00 0.00 0.00 71 1016.6
20260901064830 77 145 5.2 7.0 0.00 0.00 0.00 71 1016.6
20260901064729 77 148 4.3 6.1 0.00 0.00 0.00 71 1016.6
20260901064659 77 150 5.2 6.1 0.00 0.00 0.00 71 1016.6
20260901064557 77 144 3.5 6.1 0.00 0.00 0.00 71 1016.6
20260901064458 77 151 3.5 6.1 0.00 0.00 0.00 71 1016.6
20260901064335 77 151 4.3 6.1 0.00 0.00 0.00 71 1016.6
20260901064235 77 150 4.3 6.1 0.00 0.00 0.00 71 1016.6
20260901064133 77 144 4.3 6.1 0.00 0.00 0.00 71 1016.6
20260901064031 77 143 4.3 6.1 0.00 0.00 0.00 71 1016.6
20260901063929 77 141 4.3 6.1 0.00 0.00 0.00 71 1016.6
20260901063828 77 143 3.5 6.1 0.00 0.00 0.00 71 1016.6
20260901063734 77 144 3.5 6.1 0.00 0.00 0.00 71 1016.6
20260901063633 77 141 4.3 6.1 0.00 0.00 0.00 72 1016.6
20260901063531 77 143 1.7 6.1 0.00 0.00 0.00 72 1016.6
20260901063430 77 143 3.5 6.1 0.00 0.00 0.00 71 1016.6
20260901063329 77 147 4.3 6.1 0.00 0.00 0.00 71 1016.6
20260901063238 77 141 4.3 6.1 0.00 0.00 0.00 71 1016.6
20260901063148 77 144 4.3 6.1 0.00 0.00 0.00 71 1016.6
20260901063028 77 141 2.6 6.1 0.00 0.00 0.00 71 1016.6
20260901062926 77 136 2.6 5.2 0.00 0.00 0.00 71 1016.6
20260901062825 77 134 4.3 5.2 0.00 0.00 0.00 71 1016.6
20260901062743 77 136 4.3 5.2 0.00 0.00 0.00 70 1016.7
20260901062701 77 138 3.5 5.2 0.00 0.00 0.00 70 1016.7
20260901062539 77 133 3.5 5.2 0.00 0.00 0.00 71 1016.7
20260901062437 77 141 2.6 5.2 0.00 0.00 0.00 71 1016.7
20260901062335 77 137 4.3 5.2 0.00 0.00 0.00 71 1016.7
20260901062239 77 137 3.5 5.2 0.00 0.00 0.00 71 1016.7
20260901062157 77 136 3.5 5.2 0.00 0.00 0.00 71 1016.7
20260901062034 77 138 2.6 5.2 0.00 0.00 0.00 71 1016.7
20260901061933 77 138 1.7 5.2 0.00 0.00 0.00 71 1016.7
20260901061831 77 140 2.6 5.2 0.00 0.00 0.00 71 1016.7
20260901061740 77 140 3.5 5.2 0.00 0.00 0.00 71 1016.7
20260901061648 77 136 3.5 5.2 0.00 0.00 0.00 70 1016.7
20260901061526 77 136 2.6 5.2 0.00 0.00 0.00 70 1016.7
20260901061428 77 138 4.3 5.2 0.00 0.00 0.00 70 1016.7
20260901061325 77 127 3.5 5.2 0.00 0.00 0.00 71 1016.7
20260901061245 77 141 3.5 5.2 0.00 0.00 0.00 71 1016.8
20260901061141 77 136 3.5 5.2 0.00 0.00 0.00 71 1016.8
20260901061040 77 137 2.6 5.2 0.00 0.00 0.00 71 1016.8
20260901060940 77 134 3.5 6.1 0.00 0.00 0.00 71 1016.8
20260901060859 77 141 4.3 6.1 0.00 0.00 0.00 70 1016.8
20260901060757 77 138 4.3 6.1 0.00 0.00 0.00 70 1016.8
20260901060634 77 138 3.5 6.1 0.00 0.00 0.00 70 1016.8
20260901060536 77 133 2.6 6.1 0.00 0.00 0.00 70 1016.8
20260901060434 78 137 3.5 7.0 0.00 0.00 0.00 70 1016.8
20260901060333 78 137 2.6 7.0 0.00 0.00 0.00 70 1016.8
20260901060242 78 136 3.5 7.0 0.00 0.00 0.00 70 1016.8
20260901060152 78 137 3.5 7.0 0.00 0.00 0.00 70 1016.8
20260901060029 78 134 3.5 7.0 0.00 0.00 0.00 71 1016.8
20260901055927 78 136 4.3 7.0 0.00 0.00 0.00 71 1016.8
20260901055830 78 134 2.6 7.0 0.00 0.00 0.00 71 1016.8
20260901055748 78 130 3.5 7.0 0.00 0.00 0.00 71 1016.8
20260901055646 78 126 5.2 7.0 0.00 0.00 0.00 71 1016.8
20260901055544 78 127 4.3 6.1 0.00 0.00 0.00 71 1016.8
20260901055502 78 126 3.5 6.1 0.00 0.00 0.00 71 1016.8
20260901055340 78 128 2.6 6.1 0.00 0.00 0.00 71 1016.8
20260901055238 78 126 2.6 6.1 0.00 0.00 0.00 71 1016.8
20260901055136 78 130 4.3 6.1 0.00 0.00 0.00 71 1016.8
20260901055035 78 136 3.5 5.2 0.00 0.00 0.00 71 1016.8
20260901054958 78 130 2.6 5.2 0.00 0.00 0.00 71 1016.8
20260901054856 78 133 2.6 5.2 0.00 0.00 0.00 70 1016.8
20260901054733 78 131 3.5 5.2 0.00 0.00 0.00 70 1016.8
20260901054704 78 133 3.5 5.2 0.00 0.00 0.00 70 1016.8
20260901054542 78 133 3.5 5.2 0.00 0.00 0.00 70 1016.8
20260901054440 78 136 2.6 5.2 0.00 0.00 0.00 70 1016.8
20260901054338 78 131 3.5 5.2 0.00 0.00 0.00 70 1016.8
20260901054235 78 133 4.3 5.2 0.00 0.00 0.00 70 1016.9
20260901054153 78 130 3.5 5.2 0.00 0.00 0.00 70 1016.9
20260901054035 78 130 2.6 5.2 0.00 0.00 0.00 70 1016.9
20260901053934 78 130 3.5 5.2 0.00 0.00 0.00 70 1016.9
20260901053832 78 130 2.6 5.2 0.00 0.00 0.00 70 1016.9
20260901053731 78 130 2.6 5.2 0.00 0.00 0.00 70 1016.9
20260901053629 78 137 3.5 5.2 0.00 0.00 0.00 70 1016.9
20260901053527 78 136 2.6 5.2 0.00 0.00 0.00 70 1016.9
20260901053425 78 137 2.6 5.2 0.00 0.00 0.00 70 1016.9
20260901053329 78 136 4.3 5.2 0.00 0.00 0.00 70 1016.9
20260901053239 78 137 3.5 5.2 0.00 0.00 0.00 70 1016.9
20260901053149 78 137 3.5 5.2 0.00 0.00 0.00 70 1016.9
20260901053026 78 138 3.5 5.2 0.00 0.00 0.00 70 1016.9
20260901052924 78 134 2.6 5.2 0.00 0.00 0.00 70 1016.9
20260901052843 78 137 2.6 5.2 0.00 0.00 0.00 70 1016.9
20260901052742 78 138 2.6 5.2 0.00 0.00 0.00 70 1016.9
20260901052625 78 136 1.7 5.2 0.00 0.00 0.00 70 1016.9
20260901052543 78 138 1.7 5.2 0.00 0.00 0.00 70 1016.9
20260901052501 78 138 2.6 5.2 0.00 0.00 0.00 70 1016.9
20260901052358 78 138 3.5 5.2 0.00 0.00 0.00 70 1016.9
20260901052238 78 137 3.5 5.2 0.00 0.00 0.00 70 1016.9
20260901052136 78 136 3.5 5.2 0.00 0.00 0.00 70 1016.9
20260901052034 78 136 3.5 5.2 0.00 0.00 0.00 70 1016.9
20260901051951 78 137 1.7 5.2 0.00 0.00 0.00 70 1016.9
20260901051829 78 136 3.5 5.2 0.00 0.00 0.00 70 1016.9
20260901051751 78 134 4.3 5.2 0.00 0.00 0.00 70 1016.9
20260901051720 78 136 3.5 5.2 0.00 0.00 0.00 70 1016.9
20260901051536 78 136 3.5 5.2 0.00 0.00 0.00 70 1016.9
20260901051435 78 136 1.7 4.3 0.00 0.00 0.00 70 1016.9
20260901051333 78 138 3.5 4.3 0.00 0.00 0.00 70 1016.9
20260901051234 78 138 2.6 5.2 0.00 0.00 0.00 70 1016.9
20260901051132 78 138 3.5 5.2 0.00 0.00 0.00 70 1016.9
20260901051034 78 141 2.6 5.2 0.00 0.00 0.00 70 1016.9
20260901050934 78 143 2.6 5.2 0.00 0.00 0.00 70 1016.9
20260901050853 78 141 2.6 5.2 0.00 0.00 0.00 70 1016.9
20260901050729 78 141 2.6 5.2 0.00 0.00 0.00 70 1016.9
20260901050627 78 143 3.5 5.2 0.00 0.00 0.00 70 1016.9
20260901050526 78 143 2.6 5.2 0.00 0.00 0.00 70 1016.9
20260901050425 78 144 2.6 5.2 0.00 0.00 0.00 70 1016.9
20260901050327 78 144 2.6 5.2 0.00 0.00 0.00 70 1016.9
20260901050237 78 144 2.6 5.2 0.00 0.00 0.00 70 1016.9
20260901050148 78 141 3.5 5.2 0.00 0.00 0.00 70 1016.9
20260901050044 78 138 2.6 4.3 0.00 0.00 0.00 70 1016.9
20260901045942 78 140 2.6 5.2 0.00 0.00 0.00 70 1016.9
20260901045840 78 141 2.6 5.2 0.00 0.00 0.00 70 1016.9
20260901045737 78 140 2.6 5.2 0.00 0.00 0.00 70 1016.9
20260901045636 78 138 2.6 5.2 0.00 0.00 0.00 70 1016.9
20260901045540 78 138 3.5 5.2 0.00 0.00 0.00 70 1016.9
20260901045439 78 137 4.3 5.2 0.00 0.00 0.00 70 1016.9
20260901045356 78 141 3.5 5.2 0.00 0.00 0.00 70 1016.9
20260901045234 78 141 2.6 5.2 0.00 0.00 0.00 70 1016.9
20260901045132 78 143 4.3 5.2 0.00 0.00 0.00 70 1016.9
20260901045032 78 140 3.5 5.2 0.00 0.00 0.00 69 1016.9
20260901044931 78 140 2.6 5.2 0.00 0.00 0.00 70 1016.9
20260901044855 78 143 3.5 5.2 0.00 0.00 0.00 70 1016.9
20260901044743 78 145 2.6 5.2 0.00 0.00 0.00 70 1016.9
20260901044651 78 140 2.6 5.2 0.00 0.00 0.00 70 1016.9
20260901044528 78 143 2.6 5.2 0.00 0.00 0.00 70 1016.9
20260901044430 78 143 4.3 5.2 0.00 0.00 0.00 70 1016.9
20260901044349 78 137 2.6 5.2 0.00 0.00 0.00 70 1016.9
20260901044225 78 141 4.3 5.2 0.00 0.00 0.00 70 1016.8
20260901044143 78 141 2.6 5.2 0.00 0.00 0.00 70 1016.8
20260901044045 78 140 1.7 5.2 0.00 0.00 0.00 70 1016.8
20260901043942 78 138 1.7 4.3 0.00 0.00 0.00 70 1016.8
20260901043844 78 140 2.6 5.2 0.00 0.00 0.00 71 1016.8
20260901043740 78 137 3.5 5.2 0.00 0.00 0.00 71 1016.8
20260901043700 78 138 3.5 5.2 0.00 0.00 0.00 71 1016.8
20260901043538 78 136 3.5 6.1 0.00 0.00 0.00 71 1016.8
20260901043436 78 138 2.6 6.1 0.00 0.00 0.00 71 1016.8
20260901043333 78 138 3.5 6.1 0.00 0.00 0.00 71 1016.8
20260901043236 78 137 3.5 6.1 0.00 0.00 0.00 70 1016.8
20260901043207 78 140 2.6 6.1 0.00 0.00 0.00 70 1016.8
20260901043103 78 137 3.5 6.1 0.00 0.00 0.00 70 1016.8
20260901042940 78 133 2.6 6.1 0.00 0.00 0.00 70 1016.8
20260901042839 78 123 2.6 6.1 0.00 0.00 0.00 70 1016.8
20260901042737 78 124 3.5 6.1 0.00 0.00 0.00 70 1016.8
20260901042636 78 121 3.5 6.1 0.00 0.00 0.00 70 1016.8
20260901042532 78 137 2.6 5.2 0.00 0.00 0.00 70 1016.8
20260901042433 78 138 1.7 5.2 0.00 0.00 0.00 70 1016.8
20260901042333 78 137 2.6 5.2 0.00 0.00 0.00 70 1016.8
20260901042234 78 137 4.3 5.2 0.00 0.00 0.00 71 1016.8
20260901042133 78 134 3.5 5.2 0.00 0.00 0.00 71 1016.8
20260901042031 78 141 3.5 5.2 0.00 0.00 0.00 71 1016.8
20260901041930 78 134 2.6 5.2 0.00 0.00 0.00 71 1016.8
20260901041829 78 137 2.6 5.2 0.00 0.00 0.00 71 1016.8
20260901041731 78 136 3.5 5.2 0.00 0.00 0.00 71 1016.8
20260901041701 78 137 4.3 5.2 0.00 0.00 0.00 71 1016.8
20260901041540 78 134 3.5 5.2 0.00 0.00 0.00 71 1016.8
20260901041440 78 140 2.6 5.2 0.00 0.00 0.00 71 1016.8
20260901041340 78 138 3.5 5.2 0.00 0.00 0.00 71 1016.8
20260901041239 78 131 2.6 5.2 0.00 0.00 0.00 71 1016.9
20260901041137 78 140 2.6 5.2 0.00 0.00 0.00 71 1016.9
20260901041040 78 140 2.6 5.2 0.00 0.00 0.00 71 1016.9
20260901040939 78 140 3.5 5.2 0.00 0.00 0.00 71 1016.9
20260901040836 78 140 2.6 5.2 0.00 0.00 0.00 71 1016.9
20260901040734 78 137 2.6 5.2 0.00 0.00 0.00 71 1016.9
20260901040633 78 140 2.6 5.2 0.00 0.00 0.00 71 1016.9
20260901040552 78 133 3.5 5.2 0.00 0.00 0.00 71 1016.9
20260901040429 78 136 4.3 5.2 0.00 0.00 0.00 72 1016.9
20260901040332 78 136 3.5 5.2 0.00 0.00 0.00 71 1016.9
20260901040202 78 136 3.5 5.2 0.00 0.00 0.00 71 1016.9
20260901040059 78 134 3.5 5.2 0.00 0.00 0.00 71 1016.9
20260901035937 78 134 2.6 5.2 0.00 0.00 0.00 71 1016.9
20260901035835 78 131 3.5 5.2 0.00 0.00 0.00 71 1016.9
20260901035733 78 134 2.6 5.2 0.00 0.00 0.00 71 1016.9
20260901035637 78 136 2.6 5.2 0.00 0.00 0.00 71 1016.9
20260901035535 78 136 2.6 5.2 0.00 0.00 0.00 70 1016.9
20260901035433 78 134 2.6 5.2 0.00 0.00 0.00 70 1016.9
20260901035332 78 136 3.5 5.2 0.00 0.00 0.00 70 1016.9
20260901035230 78 136 2.6 5.2 0.00 0.00 0.00 71 1016.9
20260901035129 78 136 3.5 5.2 0.00 0.00 0.00 71 1016.9
20260901035027 78 131 3.5 5.2 0.00 0.00 0.00 70 1016.9
20260901034929 78 136 3.5 5.2 0.00 0.00 0.00 70 1016.9
20260901034848 78 137 2.6 5.2 0.00 0.00 0.00 70 1016.9
20260901034726 78 138 3.5 5.2 0.00 0.00 0.00 71 1016.9
20260901034656 78 137 3.5 5.2 0.00 0.00 0.00 71 1016.9
20260901034532 78 138 3.5 5.2 0.00 0.00 0.00 70 1016.9
20260901034452 78 140 3.5 5.2 0.00 0.00 0.00 71 1016.9
20260901034330 78 138 2.6 4.3 0.00 0.00 0.00 71 1016.9
20260901034229 78 140 2.6 4.3 0.00 0.00 0.00 70 1016.9
20260901034131 78 141 2.6 4.3 0.00 0.00 0.00 70 1016.9
20260901034029 78 141 1.7 4.3 0.00 0.00 0.00 70 1016.9
20260901033928 78 141 2.6 4.3 0.00 0.00 0.00 70 1016.9
20260901033827 78 141 2.6 4.3 0.00 0.00 0.00 70 1016.9
20260901033725 78 140 1.7 4.3 0.00 0.00 0.00 70 1016.9
20260901033642 78 137 2.6 4.3 0.00 0.00 0.00 70 1016.9
20260901033601 78 140 2.6 4.3 0.00 0.00 0.00 70 1016.9
20260901033443 78 140 2.6 4.3 0.00 0.00 0.00 70 1016.9
20260901033341 78 140 3.5 4.3 0.00 0.00 0.00 70 1016.9
20260901033240 78 138 3.5 4.3 0.00 0.00 0.00 70 1016.9
20260901033211 78 138 2.6 4.3 0.00 0.00 0.00 70 1016.9
20260901033047 78 138 3.5 4.3 0.00 0.00 0.00 70 1016.9
20260901032945 78 137 2.6 4.3 0.00 0.00 0.00 70 1016.9
20260901032904 78 136 2.6 4.3 0.00 0.00 0.00 70 1016.9
20260901032801 78 136 2.6 4.3 0.00 0.00 0.00 70 1017.0
20260901032638 78 136 2.6 4.3 0.00 0.00 0.00 70 1017.0
20260901032540 78 136 2.6 4.3 0.00 0.00 0.00 70 1017.0
20260901032438 78 133 2.6 4.3 0.00 0.00 0.00 70 1017.0
20260901032337 78 136 2.6 4.3 0.00 0.00 0.00 70 1017.0
20260901032236 78 136 2.6 4.3 0.00 0.00 0.00 70 1017.0
20260901032136 78 136 2.6 4.3 0.00 0.00 0.00 70 1017.0
20260901032035 78 136 2.6 4.3 0.00 0.00 0.00 70 1017.0
20260901031933 78 136 3.5 4.3 0.00 0.00 0.00 70 1017.0
20260901031856 78 134 2.6 4.3 0.00 0.00 0.00 70 1017.0
20260901031814 78 136 2.6 4.3 0.00 0.00 0.00 70 1017.0
20260901031723 78 136 3.5 4.3 0.00 0.00 0.00 70 1017.0
20260901031540 78 136 3.5 4.3 0.00 0.00 0.00 70 1017.0
20260901031439 78 136 2.6 4.3 0.00 0.00 0.00 70 1017.0
20260901031338 78 138 2.6 4.3 0.00 0.00 0.00 70 1017.0
20260901031237 78 136 3.5 4.3 0.00 0.00 0.00 70 1017.1
20260901031136 78 137 2.6 4.3 0.00 0.00 0.00 70 1017.1
20260901031038 78 136 2.6 4.3 0.00 0.00 0.00 70 1017.1
20260901030957 78 137 2.6 4.3 0.00 0.00 0.00 70 1017.1
20260901030837 78 137 2.6 4.3 0.00 0.00 0.00 70 1017.1
20260901030735 78 137 1.7 4.3 0.00 0.00 0.00 70 1017.1
20260901030652 78 134 1.7 4.3 0.00 0.00 0.00 71 1017.1
20260901030528 78 137 2.6 4.3 0.00 0.00 0.00 71 1017.1
20260901030428 78 137 1.7 4.3 0.00 0.00 0.00 70 1017.1
20260901030330 78 137 1.7 4.3 0.00 0.00 0.00 70 1017.1
20260901030229 78 133 1.7 4.3 0.00 0.00 0.00 71 1017.1
20260901030200 78 137 1.7 4.3 0.00 0.00 0.00 71 1017.1
20260901030038 78 137 1.7 4.3 0.00 0.00 0.00 71 1017.1
20260901025936 78 137 1.7 4.3 0.00 0.00 0.00 70 1017.1
20260901025835 78 137 0.9 4.3 0.00 0.00 0.00 71 1017.1
20260901025735 78 138 2.6 4.3 0.00 0.00 0.00 71 1017.1
20260901025638 78 136 2.6 4.3 0.00 0.00 0.00 71 1017.1
20260901025537 78 138 1.7 4.3 0.00 0.00 0.00 70 1017.1
20260901025435 78 138 2.6 4.3 0.00 0.00 0.00 71 1017.1
20260901025334 78 136 2.6 4.3 0.00 0.00 0.00 71 1017.1
20260901025233 78 138 2.6 4.3 0.00 0.00 0.00 71 1017.1
20260901025131 78 138 2.6 4.3 0.00 0.00 0.00 71 1017.1
20260901025030 78 138 1.7 4.3 0.00 0.00 0.00 71 1017.1
20260901024954 78 138 2.6 4.3 0.00 0.00 0.00 71 1017.1
20260901024832 78 138 1.7 4.3 0.00 0.00 0.00 71 1017.1
20260901024741 78 137 3.5 4.3 0.00 0.00 0.00 71 1017.1
20260901024650 78 138 2.6 4.3 0.00 0.00 0.00 71 1017.1
20260901024528 78 137 2.6 4.3 0.00 0.00 0.00 71 1017.1
20260901024446 78 136 2.6 4.3 0.00 0.00 0.00 71 1017.1
20260901024324 78 136 2.6 4.3 0.00 0.00 0.00 71 1017.1
20260901024242 78 136 2.6 4.3 0.00 0.00 0.00 71 1016.9
20260901024124 78 134 2.6 4.3 0.00 0.00 0.00 71 1016.9
20260901024044 78 134 2.6 4.3 0.00 0.00 0.00 71 1016.9
20260901024002 78 134 2.6 5.2 0.00 0.00 0.00 71 1016.9
20260901023900 78 134 1.7 5.2 0.00 0.00 0.00 71 1016.9
20260901023737 78 136 1.7 5.2 0.00 0.00 0.00 71 1016.9
20260901023634 78 136 2.6 5.2 0.00 0.00 0.00 71 1016.9
20260901023534 78 134 2.6 5.2 0.00 0.00 0.00 71 1016.9
20260901023451 78 137 1.7 5.2 0.00 0.00 0.00 71 1016.9
20260901023333 78 136 2.6 5.2 0.00 0.00 0.00 71 1016.9
20260901023252 78 136 2.6 5.2 0.00 0.00 0.00 71 1016.9
20260901023223 78 137 3.5 5.2 0.00 0.00 0.00 71 1016.9
20260901023038 78 134 2.6 5.2 0.00 0.00 0.00 71 1016.9
20260901022938 78 137 2.6 5.2 0.00 0.00 0.00 71 1016.9
20260901022836 78 137 2.6 5.2 0.00 0.00 0.00 71 1016.9
20260901022735 78 137 2.6 5.2 0.00 0.00 0.00 71 1016.8
20260901022634 78 136 2.6 5.2 0.00 0.00 0.00 71 1016.8
20260901022536 78 134 3.5 5.2 0.00 0.00 0.00 71 1016.8
20260901022436 78 137 3.5 5.2 0.00 0.00 0.00 71 1016.8
20260901022336 78 134 3.5 5.2 0.00 0.00 0.00 71 1016.8
20260901022236 78 138 3.5 5.2 0.00 0.00 0.00 71 1016.8
20260901022135 78 138 3.5 5.2 0.00 0.00 0.00 72 1016.8
20260901022034 78 140 3.5 5.2 0.00 0.00 0.00 72 1016.8
20260901021953 78 138 2.6 4.3 0.00 0.00 0.00 71 1016.8
20260901021834 78 138 3.5 4.3 0.00 0.00 0.00 71 1016.8
20260901021753 78 141 2.6 4.3 0.00 0.00 0.00 71 1016.8
20260901021723 78 140 1.7 4.3 0.00 0.00 0.00 72 1016.8
20260901021539 78 141 3.5 4.3 0.00 0.00 0.00 72 1016.8
20260901021437 79 144 2.6 4.3 0.00 0.00 0.00 72 1016.8
20260901021335 79 144 2.6 4.3 0.00 0.00 0.00 72 1016.8
20260901021234 79 145 2.6 4.3 0.00 0.00 0.00 72 1016.7
20260901021136 79 144 1.7 4.3 0.00 0.00 0.00 72 1016.7
20260901021054 79 147 2.6 4.3 0.00 0.00 0.00 72 1016.7
20260901020932 79 148 2.6 4.3 0.00 0.00 0.00 71 1016.7
20260901020831 79 148 2.6 4.3 0.00 0.00 0.00 71 1016.7
20260901020729 79 148 2.6 3.5 0.00 0.00 0.00 71 1016.7
20260901020628 79 148 2.6 4.3 0.00 0.00 0.00 71 1016.7
20260901020549 79 147 2.6 4.3 0.00 0.00 0.00 71 1016.7
20260901020426 79 147 2.6 4.3 0.00 0.00 0.00 71 1016.7
20260901020349 79 150 1.7 4.3 0.00 0.00 0.00 72 1016.7
20260901020247 79 150 2.6 4.3 0.00 0.00 0.00 72 1016.7
20260901020217 79 151 2.6 4.3 0.00 0.00 0.00 72 1016.7
20260901020035 79 150 2.6 4.3 0.00 0.00 0.00 72 1016.7
20260901015935 79 150 2.6 4.3 0.00 0.00 0.00 73 1016.7
20260901015836 79 150 2.6 4.3 0.00 0.00 0.00 72 1016.7
20260901015736 79 151 2.6 4.3 0.00 0.00 0.00 72 1016.5
20260901015634 79 150 3.5 4.3 0.00 0.00 0.00 72 1016.5
20260901015538 79 148 2.6 4.3 0.00 0.00 0.00 72 1016.5
20260901015457 79 150 2.6 4.3 0.00 0.00 0.00 71 1016.5
20260901015335 79 148 3.5 4.3 0.00 0.00 0.00 72 1016.5
20260901015233 79 148 3.5 4.3 0.00 0.00 0.00 72 1016.5
20260901015132 79 148 2.6 4.3 0.00 0.00 0.00 72 1016.5
20260901015031 79 147 1.7 4.3 0.00 0.00 0.00 72 1016.5
20260901014949 79 148 2.6 4.3 0.00 0.00 0.00 72 1016.5
20260901014846 79 147 2.6 4.3 0.00 0.00 0.00 72 1016.5
20260901014728 79 147 3.5 4.3 0.00 0.00 0.00 72 1016.5
20260901014657 79 148 2.6 4.3 0.00 0.00 0.00 72 1016.5
20260901014534 79 148 3.5 4.3 0.00 0.00 0.00 72 1016.5
20260901014432 79 147 2.6 4.3 0.00 0.00 0.00 71 1016.5
20260901014329 79 147 2.6 3.5 0.00 0.00 0.00 70 1016.5
20260901014228 79 147 2.6 4.3 0.00 0.00 0.00 70 1016.3
20260901014148 79 145 2.6 4.3 0.00 0.00 0.00 70 1016.3
20260901014025 79 148 1.7 4.3 0.00 0.00 0.00 71 1016.3
20260901013928 79 150 2.6 4.3 0.00 0.00 0.00 71 1016.3
20260901013826 79 148 1.7 4.3 0.00 0.00 0.00 71 1016.3
20260901013746 79 148 1.7 4.3 0.00 0.00 0.00 71 1016.3
20260901013624 79 148 2.6 4.3 0.00 0.00 0.00 71 1016.3
20260901013543 79 147 2.6 4.3 0.00 0.00 0.00 71 1016.3
20260901013500 79 148 2.6 4.3 0.00 0.00 0.00 71 1016.3
20260901013337 79 148 2.6 4.3 0.00 0.00 0.00 70 1016.3
20260901013237 79 148 2.6 3.5 0.00 0.00 0.00 70 1016.3
20260901013211 79 148 2.6 3.5 0.00 0.00 0.00 69 1016.3
20260901013047 79 147 1.7 2.6 0.00 0.00 0.00 69 1016.3
20260901012924 79 148 2.6 2.6 0.00 0.00 0.00 69 1016.3
20260901012842 79 148 1.7 2.6 0.00 0.00 0.00 69 1016.3
20260901012741 79 148 1.7 2.6 0.00 0.00 0.00 69 1016.2
20260901012640 79 148 1.7 2.6 0.00 0.00 0.00 69 1016.2
20260901012537 79 148 1.7 2.6 0.00 0.00 0.00 69 1016.2
20260901012437 79 147 1.7 2.6 0.00 0.00 0.00 69 1016.2
20260901012339 79 148 1.7 2.6 0.00 0.00 0.00 69 1016.2
20260901012237 79 148 1.7 3.5 0.00 0.00 0.00 69 1016.2
20260901012155 79 148 1.7 3.5 0.00 0.00 0.00 69 1016.2
20260901012034 79 145 1.7 3.5 0.00 0.00 0.00 69 1016.2
20260901011932 79 147 1.7 3.5 0.00 0.00 0.00 69 1016.2
20260901011830 79 145 2.6 4.3 0.00 0.00 0.00 69 1016.2
20260901011702 79 147 2.6 4.3 0.00 0.00 0.00 69 1016.2
20260901011601 79 147 2.6 4.3 0.00 0.00 0.00 69 1016.2
20260901011439 79 148 2.6 4.3 0.00 0.00 0.00 69 1016.2
20260901011338 79 148 2.6 4.3 0.00 0.00 0.00 70 1016.2
20260901011236 80 148 1.7 4.3 0.00 0.00 0.00 69 1016.2
20260901011135 80 147 2.6 4.3 0.00 0.00 0.00 69 1016.2
20260901011054 80 148 2.6 4.3 0.00 0.00 0.00 69 1016.2
20260901010931 80 148 1.7 4.3 0.00 0.00 0.00 69 1016.2
20260901010853 80 150 2.6 4.3 0.00 0.00 0.00 69 1016.2
20260901010731 80 150 2.6 4.3 0.00 0.00 0.00 69 1016.2
20260901010631 80 150 2.6 4.3 0.00 0.00 0.00 68 1016.2
20260901010530 80 150 2.6 4.3 0.00 0.00 0.00 68 1016.2
20260901010427 80 151 2.6 4.3 0.00 0.00 0.00 68 1016.2
20260901010326 80 150 2.6 4.3 0.00 0.00 0.00 68 1016.2
20260901010224 80 151 2.6 4.3 0.00 0.00 0.00 68 1016.2
20260901010158 80 150 1.7 4.3 0.00 0.00 0.00 68 1016.2
20260901010036 80 151 2.6 4.3 0.00 0.00 0.00 68 1016.2
20260901005935 80 150 2.6 4.3 0.00 0.00 0.00 68 1016.2
20260901005833 80 150 3.5 4.3 0.00 0.00 0.00 68 1016.2
20260901005732 80 152 2.6 4.3 0.00 0.00 0.00 68 1016.0
20260901005630 80 151 3.5 4.3 0.00 0.00 0.00 68 1016.0
20260901005529 80 152 1.7 4.3 0.00 0.00 0.00 68 1016.0
20260901005451 80 152 3.5 4.3 0.00 0.00 0.00 68 1016.0
20260901005328 80 154 2.6 4.3 0.00 0.00 0.00 68 1016.0
20260901005228 80 157 2.6 4.3 0.00 0.00 0.00 68 1016.0
20260901005128 80 158 1.7 4.3 0.00 0.00 0.00 68 1016.0
20260901005026 80 155 2.6 4.3 0.00 0.00 0.00 68 1016.0
20260901004945 80 157 3.5 4.3 0.00 0.00 0.00 68 1016.0
20260901004904 80 157 3.5 4.3 0.00 0.00 0.00 68 1016.0
20260901004753 80 157 2.6 4.3 0.00 0.00 0.00 68 1016.0
20260901004646 80 158 2.6 4.3 0.00 0.00 0.00 68 1016.0
20260901004525 80 160 2.6 4.3 0.00 0.00 0.00 68 1016.0
20260901004427 80 161 2.6 4.3 0.00 0.00 0.00 68 1016.0
20260901004345 80 162 2.6 4.3 0.00 0.00 0.00 68 1016.0
20260901004242 81 164 2.6 4.3 0.00 0.00 0.00 68 1015.9
20260901004140 81 165 2.6 3.5 0.00 0.00 0.00 68 1015.9
20260901004039 81 165 2.6 3.5 0.00 0.00 0.00 67 1015.9
20260901003938 81 167 2.6 3.5 0.00 0.00 0.00 67 1015.9
20260901003840 81 164 2.6 3.5 0.00 0.00 0.00 68 1015.9
20260901003759 81 167 1.7 3.5 0.00 0.00 0.00 68 1015.9
20260901003637 81 167 1.7 3.5 0.00 0.00 0.00 67 1015.9
20260901003535 81 167 1.7 3.5 0.00 0.00 0.00 67 1015.9
20260901003453 81 165 2.6 3.5 0.00 0.00 0.00 67 1015.9
20260901003331 81 164 1.7 3.5 0.00 0.00 0.00 67 1015.9
20260901003229 81 162 2.6 4.3 0.00 0.00 0.00 67 1015.9
20260901003201 81 167 1.7 4.3 0.00 0.00 0.00 67 1015.9
20260901003042 81 165 1.7 4.3 0.00 0.00 0.00 67 1015.9
20260901002941 81 168 0.9 4.3 0.00 0.00 0.00 67 1015.9
20260901002840 81 169 0.9 4.3 0.00 0.00 0.00 67 1015.9
20260901002739 81 165 0.9 4.3 0.00 0.00 0.00 67 1015.9
20260901002638 81 168 0.9 4.3 0.00 0.00 0.00 67 1015.9
20260901002556 81 169 0.9 4.3 0.00 0.00 0.00 66 1015.9
20260901002433 81 168 0.9 4.3 0.00 0.00 0.00 66 1015.9
20260901002335 81 169 1.7 4.3 0.00 0.00 0.00 66 1015.9
20260901002235 81 167 0.9 3.5 0.00 0.00 0.00 66 1015.9
20260901002133 81 164 0.9 3.5 0.00 0.00 0.00 66 1015.9
20260901002033 81 167 0.9 4.3 0.00 0.00 0.00 66 1015.9
20260901001935 81 168 0.9 4.3 0.00 0.00 0.00 66 1015.9
20260901001833 81 168 1.7 4.3 0.00 0.00 0.00 66 1015.9
20260901001731 81 168 0.9 4.3 0.00 0.00 0.00 66 1015.9
20260901001706 81 168 1.7 4.3 0.00 0.00 0.00 66 1015.9
20260901001524 81 168 0.9 4.3 0.00 0.00 0.00 66 1015.9
20260901001442 82 165 0.9 4.3 0.00 0.00 0.00 66 1015.9
20260901001341 82 167 1.7 4.3 0.00 0.00 0.00 66 1015.9
20260901001240 82 167 1.7 4.3 0.00 0.00 0.00 66 1015.9
20260901001203 82 165 2.6 4.3 0.00 0.00 0.00 65 1015.9
20260901001042 82 168 2.6 2.6 0.00 0.00 0.00 65 1015.9
20260901000925 82 167 2.6 2.6 0.00 0.00 0.00 65 1015.9
20260901000824 82 167 1.7 2.6 0.00 0.00 0.00 65 1015.9
20260901000742 82 165 1.7 2.6 0.00 0.00 0.00 65 1015.9
20260901000701 82 165 1.7 2.6 0.00 0.00 0.00 65 1015.9
20260901000539 82 165 1.7 2.6 0.00 0.00 0.00 65 1015.9
20260901000438 82 168 1.7 2.6 0.00 0.00 0.00 65 1015.9
20260901000350 82 165 1.7 2.6 0.00 0.00 0.00 65 1015.9
20260901000237 82 167 1.7 2.6 0.00 0.00 0.00 65 1015.9
20260901000149 82 168 1.7 2.6 0.00 0.00 0.00 65 1015.9
20260901000049 82 168 1.7 2.6 0.00 0.00 0.00 65 1015.9
20260831235927 82 167 1.7 2.6 0.00 0.00 0.00 65 1015.9
20260831235827 82 167 1.7 2.6 0.00 0.00 0.00 65 1015.9
20260831235726 82 168 1.7 2.6 0.00 0.00 0.00 65 1016.0
20260831235624 82 167 1.7 2.6 0.00 0.00 0.00 65 1016.0
20260831235542 82 167 1.7 2.6 0.00 0.00 0.00 64 1016.0
20260831235440 82 167 2.6 2.6 0.00 0.00 0.00 64 1016.0
20260831235342 82 165 1.7 2.6 0.00 0.00 0.00 63 1016.0
20260831235241 82 164 1.7 2.6 0.00 0.00 0.00 62 1016.0
20260831235141 82 168 1.7 2.6 0.00 0.00 0.00 62 1016.0
20260831235100 82 167 1.7 2.6 0.00 0.00 0.00 62 1016.0
20260831234937 83 168 0.0 1.7 0.00 0.00 0.00 63 1016.0
20260831234835 83 167 0.0 1.7 0.00 0.00 0.00 63 1016.0
20260831234704 83 167 0.0 1.7 0.00 0.00 0.00 63 1016.0
20260831234606 83 169 0.9 1.7 0.00 0.00 0.00 64 1016.0
20260831234503 83 168 0.9 1.7 0.00 0.00 0.00 64 1016.0
20260831234341 83 168 0.9 1.7 0.00 0.00 0.00 63 1016.0
20260831234300 83 167 0.9 1.7 0.00 0.00 0.00 63 1015.9
20260831234157 83 167 0.0 0.9 0.00 0.00 0.00 63 1015.9
20260831234035 83 168 0.0 0.9 0.00 0.00 0.00 63 1015.9
20260831233935 83 165 0.0 0.9 0.00 0.00 0.00 62 1015.9
20260831233833 83 168 0.0 0.9 0.00 0.00 0.00 62 1015.9
20260831233737 83 169 0.0 0.9 0.00 0.00 0.00 62 1015.9
20260831233637 83 167 0.0 0.0 0.00 0.00 0.00 62 1015.9
20260831233534 83 164 0.0 0.0 0.00 0.00 0.00 62 1015.9
20260831233451 83 167 0.0 0.0 0.00 0.00 0.00 62 1015.9
20260831233330 83 168 0.0 0.0 0.00 0.00 0.00 62 1015.9
20260831233249 83 167 0.0 0.0 0.00 0.00 0.00 62 1015.9
20260831233220 83 168 0.0 0.0 0.00 0.00 0.00 62 1015.9
20260831233036 83 167 0.0 0.0 0.00 0.00 0.00 62 1015.9
20260831232954 83 168 0.0 0.0 0.00 0.00 0.00 62 1015.9
20260831232856 83 168 0.0 0.0 0.00 0.00 0.00 62 1015.9
20260831232735 83 167 0.0 0.0 0.00 0.00 0.00 61 1016.0
20260831232632 83 168 0.0 0.0 0.00 0.00 0.00 61 1016.0
20260831232531 83 168 0.0 0.9 0.00 0.00 0.00 61 1016.0
20260831232431 83 167 0.0 0.9 0.00 0.00 0.00 61 1016.0
20260831232330 83 165 0.0 0.9 0.00 0.00 0.00 61 1016.0
20260831232228 83 167 0.0 0.9 0.00 0.00 0.00 61 1016.0
20260831232151 83 168 0.0 0.9 0.00 0.00 0.00 61 1016.0
20260831232029 83 168 0.0 0.9 0.00 0.00 0.00 60 1016.0
20260831231928 83 168 0.0 1.7 0.00 0.00 0.00 60 1016.0
20260831231828 84 168 0.0 1.7 0.00 0.00 0.00 60 1016.0
20260831231726 84 165 0.0 1.7 0.00 0.00 0.00 60 1016.0
20260831231656 84 167 0.0 1.7 0.00 0.00 0.00 60 1016.0
20260831231534 84 168 0.0 1.7 0.00 0.00 0.00 60 1016.0
20260831231437 84 167 0.0 1.7 0.00 0.00 0.00 60 1016.0
20260831231356 84 165 0.9 1.7 0.00 0.00 0.00 60 1016.0
20260831231234 84 167 0.9 1.7 0.00 0.00 0.00 60 1016.0
20260831231133 84 167 0.0 1.7 0.00 0.00 0.00 60 1016.0
20260831231032 84 167 0.9 1.7 0.00 0.00 0.00 60 1016.0
20260831230930 84 167 0.9 1.7 0.00 0.00 0.00 60 1016.0
20260831230830 84 168 0.0 1.7 0.00 0.00 0.00 60 1016.0
20260831230733 84 165 0.0 1.7 0.00 0.00 0.00 60 1016.0
20260831230632 84 165 0.0 1.7 0.00 0.00 0.00 59 1016.0
20260831230530 84 168 0.9 1.7 0.00 0.00 0.00 59 1016.0
20260831230429 84 167 0.9 1.7 0.00 0.00 0.00 59 1016.0
20260831230327 84 167 0.9 1.7 0.00 0.00 0.00 59 1016.0
20260831230228 84 167 0.9 1.7 0.00 0.00 0.00 59 1016.0
20260831230154 84 168 0.9 0.9 0.00 0.00 0.00 59 1016.0
20260831230034 84 168 0.0 0.0 0.00 0.00 0.00 59 1016.0
20260831225934 84 167 0.0 0.9 0.00 0.00 0.00 60 1016.0
20260831225832 84 168 0.0 0.9 0.00 0.00 0.00 60 1016.0
20260831225730 84 168 0.0 0.9 0.00 0.00 0.00 60 1016.1
20260831225629 84 168 0.0 0.9 0.00 0.00 0.00 60 1016.1
20260831225529 84 168 0.0 0.9 0.00 0.00 0.00 60 1016.1
20260831225428 84 168 0.0 1.7 0.00 0.00 0.00 60 1016.1
20260831225331 84 168 0.0 2.6 0.00 0.00 0.00 60 1016.1
20260831225228 84 168 0.0 2.6 0.00 0.00 0.00 60 1016.1
20260831225127 84 165 0.0 2.6 0.00 0.00 0.00 60 1016.1
20260831225025 84 167 0.0 3.5 0.00 0.00 0.00 60 1016.1
20260831224944 84 168 0.0 3.5 0.00 0.00 0.00 60 1016.1
20260831224842 84 168 0.0 3.5 0.00 0.00 0.00 60 1016.1
20260831224801 84 168 0.0 3.5 0.00 0.00 0.00 58 1016.1
20260831224710 84 168 0.9 3.5 0.00 0.00 0.00 59 1016.1
20260831224531 84 168 1.7 3.5 0.00 0.00 0.00 59 1016.1
20260831224450 84 167 0.9 3.5 0.00 0.00 0.00 59 1016.1
20260831224326 84 168 0.9 3.5 0.00 0.00 0.00 59 1016.1
20260831224244 84 168 1.7 3.5 0.00 0.00 0.00 59 1016.3
20260831224203 84 168 1.7 3.5 0.00 0.00 0.00 59 1016.3
20260831224101 84 167 0.0 1.7 0.00 0.00 0.00 59 1016.3
20260831223938 84 165 0.0 1.7 0.00 0.00 0.00 59 1016.3
20260831223857 84 162 0.0 2.6 0.00 0.00 0.00 58 1016.3
20260831223735 84 167 0.0 2.6 0.00 0.00 0.00 59 1016.3
20260831223637 84 167 0.0 2.6 0.00 0.00 0.00 58 1016.3
20260831223556 84 165 0.0 2.6 0.00 0.00 0.00 59 1016.3
20260831223433 84 167 0.0 3.5 0.00 0.00 0.00 59 1016.3
20260831223332 84 167 0.0 3.5 0.00 0.00 0.00 59 1016.3
20260831223252 84 164 0.0 3.5 0.00 0.00 0.00 59 1016.3
20260831223223 84 162 0.9 4.3 0.00 0.00 0.00 59 1016.3
20260831223039 84 167 1.7 4.3 0.00 0.00 0.00 59 1016.3
20260831222938 84 165 1.7 4.3 0.00 0.00 0.00 59 1016.3
20260831222901 84 165 0.9 4.3 0.00 0.00 0.00 59 1016.3
20260831222737 84 165 0.9 4.3 0.00 0.00 0.00 59 1016.4
20260831222635 84 167 1.7 4.3 0.00 0.00 0.00 59 1016.4
20260831222537 84 167 0.9 4.3 0.00 0.00 0.00 59 1016.4
20260831222436 84 165 0.9 4.3 0.00 0.00 0.00 59 1016.4
20260831222358 84 167 2.6 4.3 0.00 0.00 0.00 58 1016.4
20260831222235 84 160 1.7 4.3 0.00 0.00 0.00 58 1016.4
20260831222137 84 167 0.0 4.3 0.00 0.00 0.00 58 1016.4
20260831222055 84 167 0.9 4.3 0.00 0.00 0.00 58 1016.4
20260831221932 84 164 1.7 4.3 0.00 0.00 0.00 58 1016.4
20260831221850 84 167 1.7 4.3 0.00 0.00 0.00 58 1016.4
20260831221739 84 167 0.9 4.3 0.00 0.00 0.00 57 1016.4
20260831221648 84 167 1.7 4.3 0.00 0.00 0.00 58 1016.4
20260831221526 84 165 2.6 4.3 0.00 0.00 0.00 59 1016.4
20260831221424 84 165 0.9 4.3 0.00 0.00 0.00 59 1016.4
20260831221329 84 165 1.7 4.3 0.00 0.00 0.00 59 1016.4
20260831221228 84 165 3.5 4.3 0.00 0.00 0.00 58 1016.4
20260831221146 84 110 0.0 1.7 0.00 0.00 0.00 58 1016.4
20260831221043 84 109 0.0 1.7 0.00 0.00 0.00 58 1016.4
20260831221002 84 109 0.9 2.6 0.00 0.00 0.00 57 1016.4
20260831220839 84 107 0.0 5.2 0.00 0.00 0.00 56 1016.4
20260831220756 84 109 0.0 5.2 0.00 0.00 0.00 56 1016.4
20260831220633 84 106 0.0 5.2 0.00 0.00 0.00 57 1016.4
20260831220531 84 109 0.0 5.2 0.00 0.00 0.00 57 1016.4
20260831220433 84 109 0.0 5.2 0.00 0.00 0.00 57 1016.4
20260831220331 84 107 0.9 5.2 0.00 0.00 0.00 57 1016.4
20260831220239 84 107 0.9 5.2 0.00 0.00 0.00 57 1016.4
20260831220148 84 107 1.7 5.2 0.00 0.00 0.00 57 1016.4
20260831220045 84 110 1.7 5.2 0.00 0.00 0.00 57 1016.4
20260831220002 84 107 3.5 5.2 0.00 0.00 0.00 56 1016.4
20260831215859 84 109 2.6 5.2 0.00 0.00 0.00 56 1016.4
20260831215740 84 100 1.7 2.6 0.00 0.00 0.00 56 1016.4
20260831215659 84 99 1.7 2.6 0.00 0.00 0.00 56 1016.4
20260831215556 85 99 0.9 2.6 0.00 0.00 0.00 58 1016.4
20260831215436 85 97 1.7 2.6 0.00 0.00 0.00 58 1016.4
20260831215355 85 99 0.9 2.6 0.00 0.00 0.00 58 1016.4
20260831215231 85 99 1.7 2.6 0.00 0.00 0.00 58 1016.4
20260831215130 85 97 0.0 2.6 0.00 0.00 0.00 58 1016.4
20260831215029 85 99 0.0 2.6 0.00 0.00 0.00 58 1016.4
20260831214928 85 99 0.0 2.6 0.00 0.00 0.00 58 1016.4
20260831214827 85 96 0.0 2.6 0.00 0.00 0.00 58 1016.4
20260831214740 85 99 0.0 2.6 0.00 0.00 0.00 59 1016.4
20260831214649 85 99 0.9 2.6 0.00 0.00 0.00 58 1016.4
20260831214527 85 97 0.0 2.6 0.00 0.00 0.00 58 1016.4
20260831214425 85 95 0.9 2.6 0.00 0.00 0.00 57 1016.4
20260831214325 85 97 0.0 2.6 0.00 0.00 0.00 57 1016.4
20260831214224 85 99 0.9 2.6 0.00 0.00 0.00 57 1016.5
20260831214124 85 97 0.0 2.6 0.00 0.00 0.00 57 1016.5
20260831214026 85 96 0.9 2.6 0.00 0.00 0.00 56 1016.5
20260831213925 85 99 1.7 2.6 0.00 0.00 0.00 56 1016.5
20260831213845 85 96 1.7 2.6 0.00 0.00 0.00 56 1016.5
20260831213803 85 97 0.9 2.6 0.00 0.00 0.00 56 1016.5
20260831213641 85 95 0.0 1.7 0.00 0.00 0.00 56 1016.5
20260831213540 85 97 0.0 1.7 0.00 0.00 0.00 56 1016.5
20260831213439 85 97 0.0 1.7 0.00 0.00 0.00 57 1016.5
20260831213337 85 96 0.0 1.7 0.00 0.00 0.00 55 1016.5
20260831213241 85 96 0.9 1.7 0.00 0.00 0.00 56 1016.5
20260831213211 85 97 0.9 1.7 0.00 0.00 0.00 56 1016.5
20260831213027 85 96 0.0 1.7 0.00 0.00 0.00 55 1016.5
20260831212926 85 97 0.0 1.7 0.00 0.00 0.00 54 1016.5
20260831212826 85 96 0.0 2.6 0.00 0.00 0.00 54 1016.5
20260831212726 85 96 0.0 2.6 0.00 0.00 0.00 54 1016.6
20260831212625 85 97 0.0 2.6 0.00 0.00 0.00 56 1016.6
20260831212547 85 97 0.0 3.5 0.00 0.00 0.00 56 1016.6
20260831212425 85 97 0.0 3.5 0.00 0.00 0.00 56 1016.6
20260831212342 85 96 0.0 3.5 0.00 0.00 0.00 56 1016.6
20260831212241 85 96 0.9 3.5 0.00 0.00 0.00 56 1016.6
20260831212200 85 97 0.9 3.5 0.00 0.00 0.00 56 1016.6
20260831212036 85 97 0.9 3.5 0.00 0.00 0.00 56 1016.6
20260831211934 85 96 1.7 3.5 0.00 0.00 0.00 56 1016.6
20260831211832 85 95 1.7 3.5 0.00 0.00 0.00 56 1016.6
20260831211735 85 96 2.6 3.5 0.00 0.00 0.00 56 1016.6
20260831211704 85 97 2.6 3.5 0.00 0.00 0.00 56 1016.6
20260831211602 85 96 1.7 2.6 0.00 0.00 0.00 57 1016.6
20260831211439 85 96 1.7 2.6 0.00 0.00 0.00 57 1016.6
20260831211337 85 96 0.9 4.3 0.00 0.00 0.00 57 1016.6
20260831211235 85 95 0.0 4.3 0.00 0.00 0.00 58 1016.7
20260831211134 85 97 0.9 4.3 0.00 0.00 0.00 57 1016.7
20260831211034 85 96 1.7 4.3 0.00 0.00 0.00 58 1016.7
20260831210937 85 97 1.7 4.3 0.00 0.00 0.00 58 1016.7
20260831210837 85 97 1.7 4.3 0.00 0.00 0.00 58 1016.7
20260831210735 85 97 0.9 4.3 0.00 0.00 0.00 56 1016.7
20260831210634 85 96 0.9 4.3 0.00 0.00 0.00 56 1016.7
20260831210533 85 96 2.6 4.3 0.00 0.00 0.00 56 1016.7
20260831210431 85 96 2.6 4.3 0.00 0.00 0.00 57 1016.7
20260831210334 84 97 2.6 4.3 0.00 0.00 0.00 58 1016.7
20260831210243 84 97 3.5 4.3 0.00 0.00 0.00 58 1016.7
20260831210153 84 96 3.5 4.3 0.00 0.00 0.00 56 1016.7
20260831210028 84 99 0.9 2.6 0.00 0.00 0.00 55 1016.7
20260831205930 84 97 0.0 4.3 0.00 0.00 0.00 54 1016.7
20260831205850 84 95 0.0 4.3 0.00 0.00 0.00 54 1016.7
20260831205747 84 96 0.9 4.3 0.00 0.00 0.00 54 1016.9
20260831205623 84 97 0.0 4.3 0.00 0.00 0.00 54 1016.9
20260831205523 84 97 0.0 4.3 0.00 0.00 0.00 55 1016.9
20260831205429 84 95 0.0 5.2 0.00 0.00 0.00 57 1016.9
20260831205328 84 97 1.7 5.2 0.00 0.00 0.00 57 1016.9
20260831205227 84 97 1.7 5.2 0.00 0.00 0.00 58 1016.9
20260831205127 84 97 2.6 5.2 0.00 0.00 0.00 58 1016.9
20260831205047 84 96 2.6 5.2 0.00 0.00 0.00 58 1016.9
20260831205005 84 97 1.7 5.2 0.00 0.00 0.00 59 1016.9
20260831204842 84 96 1.7 5.2 0.00 0.00 0.00 59 1016.9
20260831204725 84 97 2.6 5.2 0.00 0.00 0.00 59 1016.9
20260831204656 84 95 3.5 5.2 0.00 0.00 0.00 59 1016.9
20260831204533 84 99 2.6 5.2 0.00 0.00 0.00 59 1016.9
20260831204433 84 99 0.9 3.5 0.00 0.00 0.00 57 1016.9
20260831204332 84 100 0.0 3.5 0.00 0.00 0.00 57 1016.9
20260831204230 84 99 0.0 3.5 0.00 0.00 0.00 56 1016.9
20260831204129 84 97 0.0 3.5 0.00 0.00 0.00 56 1016.9
20260831204052 84 100 1.7 3.5 0.00 0.00 0.00 56 1016.9
20260831203930 84 99 1.7 3.5 0.00 0.00 0.00 57 1016.9